<- Previous Day | Today | Next Day ->

All Data for 31 July 2021

 

Time A - D Temp A - D Dew Point A - D Humidity A - D Pressure A - D Wind A - D Wind Dir Gust A - D Rain Rate A - D Rain Total
00:00 14.9 14.9 100 1011.8 7.6 W 9.8 0.0 0.0
00:01 14.9 14.9 100 1011.9 6.0 SW 9.8 0.0 0.0
00:02 14.9 14.9 100 1011.9 6.0 SW 9.8 0.0 0.0
00:03 14.9 14.9 100 1011.9 9.2 W 9.8 0.0 0.0
00:04 14.9 14.9 100 1012.1 9.2 W 9.8 0.0 0.0
00:05 14.9 14.9 100 1011.9 7.6 W 9.8 0.0 0.0
00:06 14.9 14.9 100 1011.8 9.2 W 9.8 0.0 0.0
00:08 14.9 14.9 100 1011.9 6.9 SW 9.8 0.0 0.0
00:09 14.9 14.9 100 1011.9 9.2 N 9.8 0.0 0.0
00:10 14.9 14.9 100 1011.9 8.3 W 9.8 0.0 0.0
00:11 14.9 14.9 100 1011.6 6.0 W 9.8 0.0 0.0
00:12 14.9 14.9 100 1011.6 6.0 W 9.8 0.0 0.0
00:13 14.9 14.9 100 1012.0 6.0 SW 9.8 0.0 0.0
00:14 15.0 15.0 100 1011.7 10.7 NW 10.7 0.0 0.0
00:15 15.0 15.0 100 1011.9 10.7 W 10.7 0.0 0.0
00:16 15.0 15.0 100 1011.9 9.2 W 10.7 0.0 0.0
00:17 15.0 15.0 100 1011.9 7.6 SW 10.7 0.0 0.0
00:18 15.0 15.0 100 1011.9 10.7 NW 10.7 0.0 0.0
00:19 15.0 15.0 100 1012.0 9.2 SW 10.7 0.0 0.0
00:20 15.0 15.0 100 1011.8 9.8 W 10.7 0.0 0.0
00:21 15.0 15.0 100 1011.9 8.3 SW 10.7 0.0 0.0
00:22 15.0 15.0 100 1011.9 6.0 SW 10.7 0.0 0.0
00:23 15.0 15.0 100 1011.9 12.1 WSW 12.1 0.0 0.0
00:25 15.0 15.0 100 1011.8 8.3 W 12.1 0.0 0.0
00:26 14.9 14.9 100 1011.9 8.3 W 12.1 0.0 0.0
00:27 14.9 14.9 100 1011.8 8.3 W 12.1 0.0 0.0
00:28 14.9 14.9 100 1011.9 7.6 W 12.1 0.0 0.0
00:29 14.9 14.9 100 1011.7 8.3 W 12.1 0.0 0.0
00:30 14.9 14.9 100 1011.7 8.3 SW 12.1 0.0 0.0
00:31 14.9 14.9 100 1011.9 8.3 NW 12.1 0.0 0.0
00:32 14.9 14.9 100 1011.9 6.9 SW 12.1 0.0 0.0
00:33 14.9 14.9 100 1011.8 7.6 W 12.1 0.0 0.0
00:34 14.9 14.9 100 1012.1 4.5 W 10.7 0.0 0.0
00:35 14.9 14.9 100 1011.8 6.0 W 8.3 0.0 0.0
00:36 14.9 14.9 100 1011.8 6.9 SW 8.3 0.0 0.0
00:37 14.9 14.9 100 1012.1 6.0 W 8.3 0.0 0.0
00:38 14.9 14.9 100 1011.9 6.0 W 8.3 0.0 0.0
00:39 14.9 14.9 100 1012.0 6.9 W 8.3 0.0 0.0
00:40 14.9 14.9 100 1012.1 4.5 NW 8.3 0.0 0.0
00:42 14.9 14.9 100 1011.8 8.3 W 8.3 0.0 0.0
00:43 14.9 14.9 100 1012.0 4.5 W 8.3 0.0 0.0
00:44 14.9 14.9 100 1011.8 4.5 W 8.3 0.0 0.0
00:45 14.8 14.8 100 1012.0 4.5 W 8.3 0.0 0.0
00:46 14.8 14.8 100 1011.9 5.4 W 8.3 0.0 0.0
00:47 14.8 14.8 100 1011.9 6.0 W 8.3 0.0 0.0
00:48 14.8 14.8 100 1012.0 6.9 SW 8.3 0.0 0.0
00:49 14.8 14.8 100 1012.1 6.9 W 8.3 0.0 0.0
00:50 14.8 14.8 100 1012.0 6.0 W 8.3 0.0 0.0
00:51 14.8 14.8 100 1011.8 6.9 W 8.3 0.0 0.0
00:52 14.8 14.8 100 1011.8 6.0 S 8.3 0.0 0.0
00:53 14.8 14.8 100 1012.1 6.0 W 8.3 0.0 0.0
00:54 14.8 14.8 100 1012.0 6.9 W 6.9 0.0 0.0
00:55 14.8 14.8 100 1011.8 7.6 W 7.6 0.0 0.0
00:56 14.9 14.9 100 1012.0 8.3 SW 8.3 0.0 0.0
00:57 14.9 14.9 100 1012.1 8.3 W 8.3 0.0 0.0
00:59 14.9 14.9 100 1011.9 6.0 W 8.3 0.0 0.0
01:00 14.9 14.9 100 1011.8 6.0 W 8.3 0.0 0.0
01:01 14.9 14.9 100 1012.0 6.0 W 8.3 0.0 0.0
01:02 14.9 14.9 100 1012.0 6.0 W 8.3 0.0 0.0
01:03 14.9 14.9 100 1012.0 6.0 W 8.3 0.0 0.0
01:04 14.9 14.9 100 1012.0 6.0 W 8.3 0.0 0.0
01:05 14.9 14.9 100 1011.7 6.0 W 8.3 0.0 0.0
01:06 14.9 14.9 100 1011.9 6.0 W 8.3 0.0 0.0
01:07 14.9 14.9 100 1011.9 7.6 W 8.3 0.0 0.0
01:08 14.9 14.9 100 1012.1 7.6 W 7.6 0.0 0.0
01:09 14.9 14.9 100 1011.9 7.6 W 7.6 0.0 0.0
01:10 14.9 14.9 100 1011.9 6.9 W 7.6 0.0 0.0
01:11 14.9 14.9 100 1012.1 7.6 SW 7.6 0.0 0.0
01:12 14.9 14.9 100 1012.0 7.6 SW 7.6 0.0 0.0
01:14 14.9 14.9 100 1011.8 8.3 W 8.3 0.0 0.0
01:15 14.9 14.9 100 1011.7 6.9 W 8.3 0.0 0.0
01:16 14.9 14.9 100 1012.0 5.4 NW 8.3 0.0 0.0
01:17 14.9 14.9 100 1012.0 6.9 SW 8.3 0.0 0.0
01:18 14.9 14.9 100 1012.0 6.9 W 8.3 0.0 0.0
01:19 14.8 14.8 100 1012.2 7.6 W 8.3 0.0 0.0
01:20 14.8 14.8 100 1011.9 6.9 SW 8.3 0.0 0.0
01:21 14.8 14.8 100 1011.9 7.6 SW 8.3 0.0 0.0
01:22 14.8 14.8 100 1012.0 7.6 W 8.3 0.0 0.0
01:23 14.8 14.8 100 1012.1 8.3 W 8.3 0.0 0.0
01:24 14.8 14.8 100 1011.8 8.3 NW 8.3 0.0 0.0
01:25 14.8 14.8 100 1011.7 6.9 W 8.3 0.0 0.0
01:26 14.8 14.8 100 1011.8 6.0 W 8.3 0.0 0.0
01:27 14.8 14.8 100 1012.0 4.5 NW 8.3 0.0 0.0
01:29 14.8 14.8 100 1011.6 4.5 SE 8.3 0.0 0.0
01:30 14.8 14.8 100 1011.8 9.2 WNW 9.8 0.0 0.0
01:31 14.8 14.8 100 1011.8 8.3 S 9.8 0.0 0.0
01:32 14.8 14.8 100 1011.8 7.6 W 9.8 0.0 0.0
01:33 14.8 14.8 100 1011.8 7.6 W 9.8 0.0 0.0
01:34 14.8 14.8 100 1012.0 8.3 W 9.8 0.0 0.0
01:35 14.8 14.8 100 1012.0 7.6 SW 9.8 0.0 0.0
01:36 14.8 14.8 100 1011.8 8.3 W 9.8 0.0 0.0
01:37 14.8 14.8 100 1011.8 6.9 NW 10.7 0.0 0.0
01:38 14.8 14.8 100 1011.9 6.0 W 10.7 0.0 0.0
01:39 14.8 14.8 100 1011.9 8.3 W 10.7 0.0 0.0
01:40 14.8 14.8 100 1011.9 7.6 W 10.7 0.0 0.0
01:41 14.8 14.8 100 1011.6 4.5 SW 10.7 0.0 0.0
01:42 14.8 14.8 100 1011.8 4.5 W 10.7 0.0 0.0
01:43 14.8 14.8 100 1011.9 9.8 S 10.7 0.0 0.0
01:44 14.8 14.8 100 1012.0 9.8 WNW 10.7 0.0 0.0
01:45 14.8 14.8 100 1011.7 6.0 W 10.7 0.0 0.0
01:46 14.8 14.8 100 1011.9 6.0 W 10.7 0.0 0.0
01:47 14.8 14.8 100 1011.9 6.0 NW 9.8 0.0 0.0
01:48 14.8 14.8 100 1011.9 6.0 SW 9.8 0.0 0.0
01:50 14.8 14.8 100 1011.7 7.6 W 9.8 0.0 0.0
01:51 14.8 14.8 100 1011.9 9.8 W 9.8 0.0 0.0
01:52 14.8 14.8 100 1011.8 9.8 NW 9.8 0.0 0.0
01:53 14.8 14.8 100 1011.9 9.2 W 9.8 0.0 0.0
01:54 14.8 14.8 100 1011.8 9.2 W 9.8 0.0 0.0
01:55 14.8 14.8 100 1011.8 7.6 W 9.8 0.0 0.0
01:56 14.8 14.8 100 1011.9 9.8 W 9.8 0.0 0.0
01:57 14.8 14.8 100 1012.0 8.3 W 9.8 0.0 0.0
01:58 14.8 14.8 100 1011.9 7.6 N 9.8 0.0 0.0
01:59 14.8 14.8 100 1011.7 6.9 W 9.8 0.0 0.0
02:00 14.8 14.8 100 1011.9 6.9 W 9.8 0.0 0.0
02:01 14.8 14.8 100 1011.8 6.9 W 9.8 0.0 0.0
02:02 14.8 14.8 100 1012.0 9.2 WNW 9.8 0.0 0.0
02:03 14.8 14.8 100 1011.9 8.3 S 9.8 0.0 0.0
02:05 14.8 14.8 100 1011.9 5.4 SW 9.8 0.0 0.0
02:06 14.8 14.8 100 1011.9 5.4 W 9.8 0.0 0.0
02:07 14.8 14.8 100 1012.0 6.0 W 9.2 0.0 0.0
02:08 14.8 14.8 100 1011.9 6.9 W 9.2 0.0 0.0
02:09 14.8 14.8 100 1011.9 6.9 S 9.2 0.0 0.0
02:10 14.8 14.8 100 1011.9 6.0 NW 9.2 0.0 0.0
02:11 14.8 14.8 100 1011.9 6.0 W 9.2 0.0 0.0
02:12 14.8 14.8 100 1011.9 6.9 W 9.2 0.0 0.0
02:13 14.7 14.7 100 1011.9 6.9 SW 9.2 0.0 0.0
02:14 14.7 14.7 100 1011.7 6.9 W 8.3 0.0 0.0
02:15 14.7 14.7 100 1011.8 4.5 NW 6.9 0.0 0.0
02:16 14.7 14.7 100 1011.8 6.9 SW 6.9 0.0 0.0
02:17 14.7 14.7 100 1011.9 6.0 W 6.9 0.0 0.0
02:18 14.7 14.7 100 1011.7 5.4 W 6.9 0.0 0.0
02:19 14.7 14.7 100 1011.9 8.3 NW 8.3 0.0 0.0
02:21 14.7 14.7 100 1011.9 6.0 W 8.3 0.0 0.0
02:22 14.7 14.7 100 1011.8 7.6 W 8.3 0.0 0.0
02:23 14.7 14.7 100 1011.8 3.8 W 8.3 0.0 0.0
02:24 14.7 14.7 100 1011.7 5.4 W 8.3 0.0 0.0
02:25 14.7 14.7 100 1011.7 5.4 W 8.3 0.0 0.0
02:26 14.7 14.7 100 1011.9 5.4 NW 8.3 0.0 0.0
02:27 14.7 14.7 100 1011.9 4.5 W 8.3 0.0 0.0
02:28 14.7 14.7 100 1011.9 6.0 W 8.3 0.0 0.0
02:29 14.7 14.7 100 1011.7 3.1 W 8.3 0.0 0.0
02:30 14.7 14.7 100 1011.7 5.4 N 7.6 0.0 0.0
02:31 14.7 14.7 100 1011.7 4.5 W 7.6 0.0 0.0
02:32 14.7 14.7 100 1011.8 3.1 SW 7.6 0.0 0.0
02:33 14.7 14.7 100 1011.8 3.8 W 6.0 0.0 0.0
02:34 14.7 14.7 100 1011.6 5.4 NW 6.0 0.0 0.0
02:36 14.7 14.7 100 1011.8 6.0 W 6.0 0.0 0.0
02:37 14.7 14.7 100 1011.7 6.0 W 6.0 0.0 0.0
02:38 14.7 14.7 100 1011.9 5.4 W 6.0 0.0 0.0
02:39 14.7 14.7 100 1011.7 3.1 W 6.0 0.0 0.0
02:40 14.7 14.7 100 1011.7 3.1 W 6.0 0.0 0.0
02:41 14.7 14.7 100 1011.7 5.4 W 6.0 0.0 0.0
02:42 14.7 14.7 100 1011.8 5.4 W 6.0 0.0 0.0
02:43 14.7 14.7 100 1011.9 4.5 NW 6.0 0.0 0.0
02:44 14.7 14.7 100 1012.0 4.5 NW 6.0 0.0 0.0
02:45 14.7 14.7 100 1011.9 5.4 NW 6.0 0.0 0.0
02:46 14.7 14.7 100 1011.7 5.4 NW 6.0 0.0 0.0
02:47 14.7 14.7 100 1011.7 5.4 W 6.0 0.0 0.0
02:48 14.7 14.7 100 1011.9 4.5 N 6.0 0.0 0.0
02:49 14.7 14.7 100 1011.8 4.5 SW 6.0 0.0 0.0
02:51 14.7 14.7 100 1012.0 6.0 W 6.0 0.0 0.0
02:52 14.7 14.7 100 1011.7 6.0 W 6.0 0.0 0.0
02:53 14.7 14.7 100 1011.8 7.6 SW 7.6 0.0 0.0
02:54 14.7 14.7 100 1011.7 6.0 W 7.6 0.0 0.0
02:55 14.7 14.7 100 1011.8 4.5 WSW 7.6 0.0 0.0
02:56 14.7 14.7 100 1011.8 4.5 WSW 7.6 0.0 0.0
02:57 14.7 14.7 100 1011.9 4.5 SW 7.6 0.0 0.0
02:58 14.7 14.7 100 1011.8 4.5 NW 7.6 0.0 0.0
02:59 14.7 14.7 100 1011.7 5.4 W 7.6 0.0 0.0
03:00 14.7 14.7 100 1011.8 7.6 NW 7.6 0.0 0.0
03:01 14.7 14.7 100 1011.9 7.6 NW 7.6 0.0 0.0
03:02 14.7 14.7 100 1011.7 7.6 NW 7.6 0.0 0.0
03:03 14.7 14.7 100 1011.8 7.6 NW 7.6 0.0 0.0
03:04 14.7 14.7 100 1011.6 7.6 NW 7.6 0.0 0.0
03:05 14.7 14.7 100 1011.7 7.6 NW 7.6 0.0 0.0
03:06 14.7 14.7 100 1011.7 7.6 NW 7.6 0.0 0.0
03:07 14.7 14.7 100 1011.6 6.0 NW 7.6 0.0 0.0
03:08 14.7 14.7 100 1011.7 6.0 NW 7.6 0.0 0.0
03:09 14.6 14.6 100 1011.7 6.9 W 7.6 0.0 0.0
03:10 14.6 14.6 100 1011.8 6.9 W 7.6 0.0 0.0
03:11 14.6 14.6 100 1011.7 5.4 W 7.6 0.0 0.0
03:13 14.6 14.6 100 1011.6 6.9 NW 7.6 0.0 0.0
03:14 14.6 14.6 100 1011.6 5.4 SW 7.6 0.0 0.0
03:15 14.6 14.6 100 1011.8 5.4 SW 7.6 0.0 0.0
03:16 14.6 14.6 100 1011.6 4.5 NW 6.9 0.0 0.0
03:17 14.6 14.6 100 1011.9 3.8 N 6.9 0.0 0.0
03:18 14.6 14.6 100 1011.8 3.1 NW 6.9 0.0 0.0
03:19 14.6 14.6 100 1011.4 3.1 W 6.9 0.0 0.0
03:20 14.5 14.5 100 1011.7 3.1 W 6.9 0.0 0.0
03:21 14.5 14.5 100 1011.6 4.5 N 6.9 0.0 0.0
03:22 14.5 14.5 100 1011.7 3.1 WNW 6.9 0.0 0.0
03:23 14.5 14.5 100 1011.8 4.5 W 6.9 0.0 0.0
03:24 14.5 14.5 100 1011.7 3.8 N 5.4 0.0 0.0
03:25 14.5 14.5 100 1011.7 5.4 NW 5.4 0.0 0.0
03:26 14.5 14.5 100 1011.8 4.5 W 5.4 0.0 0.0
03:27 14.4 14.3 99 1011.6 4.5 W 5.4 0.0 0.0
03:28 14.4 14.3 99 1011.6 4.5 W 5.4 0.0 0.0
03:29 14.4 14.3 99 1011.8 3.1 W 5.4 0.0 0.0
03:31 14.4 14.3 99 1011.6 3.8 S 5.4 0.0 0.0
03:32 14.4 14.3 99 1011.7 4.5 NW 5.4 0.0 0.0
03:33 14.4 14.3 99 1011.7 4.5 NW 5.4 0.0 0.0
03:34 14.4 14.3 99 1011.6 4.5 NW 5.4 0.0 0.0
03:35 14.4 14.3 99 1011.8 6.0 W 6.0 0.0 0.0
03:36 14.3 14.2 99 1011.9 6.0 W 6.0 0.0 0.0
03:37 14.3 14.2 99 1011.7 3.8 N 6.0 0.0 0.0
03:38 14.3 14.2 99 1011.7 3.1 W 6.0 0.0 0.0
03:39 14.3 14.2 99 1011.7 4.5 NW 6.0 0.0 0.0
03:40 14.3 14.2 99 1011.8 4.5 W 6.0 0.0 0.0
03:41 14.3 14.2 99 1011.8 4.5 SW 6.0 0.0 0.0
03:42 14.3 14.2 99 1011.7 3.8 W 6.0 0.0 0.0
03:43 14.3 14.2 99 1011.7 3.8 W 6.0 0.0 0.0
03:44 14.3 14.2 99 1011.7 3.8 W 6.0 0.0 0.0
03:46 14.2 14.1 99 1011.6 3.8 NW 4.5 0.0 0.0
03:47 14.2 14.1 99 1011.7 4.5 W 4.5 0.0 0.0
03:48 14.2 14.1 99 1011.7 5.4 NW 5.4 0.0 0.0
03:49 14.2 14.1 99 1011.7 4.5 W 5.4 0.0 0.0
03:50 14.2 14.1 99 1011.8 5.4 W 5.4 0.0 0.0
03:51 14.2 14.1 99 1011.6 4.5 NW 5.4 0.0 0.0
03:52 14.2 14.1 99 1011.6 2.2 NW 5.4 0.0 0.0
03:53 14.2 14.1 99 1011.5 2.2 SW 5.4 0.0 0.0
03:54 14.1 14.0 99 1011.6 3.8 W 5.4 0.0 0.0
03:55 14.1 14.0 99 1011.5 5.4 W 5.4 0.0 0.0
03:56 14.1 14.0 99 1011.5 5.4 W 5.4 0.0 0.0
03:57 14.1 14.0 99 1011.5 3.8 NW 5.4 0.0 0.0
03:58 14.1 14.0 99 1011.7 4.5 NW 5.4 0.0 0.0
03:59 14.1 14.0 99 1011.5 4.5 W 5.4 0.0 0.0
04:01 14.1 14.0 99 1011.5 4.5 NW 5.4 0.0 0.0
04:02 14.1 14.0 99 1011.5 3.8 N 5.4 0.0 0.0
04:03 14.0 13.9 99 1011.4 4.5 W 5.4 0.0 0.0
04:04 14.0 13.9 99 1011.4 4.5 W 5.4 0.0 0.0
04:05 14.0 13.9 99 1011.5 3.8 SW 5.4 0.0 0.0
04:06 14.0 13.9 99 1011.4 3.8 W 5.4 0.0 0.0
04:07 14.0 13.9 99 1011.6 4.5 NW 5.4 0.0 0.0
04:08 14.0 13.9 99 1011.4 7.6 NW 7.6 0.0 0.0
04:09 14.0 13.9 99 1011.5 3.8 SW 7.6 0.0 0.0
04:10 14.0 13.9 99 1011.5 3.8 SW 7.6 0.0 0.0
04:11 14.0 13.9 99 1011.4 3.8 SW 7.6 0.0 0.0
04:12 14.0 13.9 99 1011.7 3.8 SW 7.6 0.0 0.0
04:13 14.0 13.9 99 1011.3 3.8 NW 7.6 0.0 0.0
04:14 14.0 13.9 99 1011.5 3.8 W 7.6 0.0 0.0
04:16 14.0 13.9 99 1011.3 3.8 NW 7.6 0.0 0.0
04:17 13.9 13.8 99 1011.6 3.8 NW 7.6 0.0 0.0
04:18 13.9 13.8 99 1011.4 3.8 NW 5.4 0.0 0.0
04:19 13.9 13.8 99 1011.4 5.4 W 5.4 0.0 0.0
04:20 13.9 13.8 99 1011.6 3.8 WNW 5.4 0.0 0.0
04:21 13.9 13.8 99 1011.4 3.8 W 5.4 0.0 0.0
04:22 13.9 13.8 99 1011.4 3.8 W 5.4 0.0 0.0
04:23 13.9 13.8 99 1011.2 3.1 W 5.4 0.0 0.0
04:24 13.9 13.8 99 1011.4 3.1 W 5.4 0.0 0.0
04:25 13.9 13.8 99 1011.3 4.5 N 5.4 0.0 0.0
04:26 13.9 13.8 99 1011.4 4.5 SW 5.4 0.0 0.0
04:27 13.9 13.8 99 1011.4 3.1 NW 5.4 0.0 0.0
04:28 13.9 13.8 99 1011.3 3.8 W 5.4 0.0 0.0
04:29 13.9 13.8 99 1011.4 3.8 W 5.4 0.0 0.0
04:30 13.9 13.8 99 1011.3 3.8 W 4.5 0.0 0.0
04:32 13.9 13.8 99 1011.3 3.1 NW 4.5 0.0 0.0
04:33 13.9 13.8 99 1011.2 4.5 NW 4.5 0.0 0.0
04:34 13.9 13.8 99 1011.4 3.8 N 4.5 0.0 0.0
04:35 13.9 13.8 99 1011.4 5.4 W 5.4 0.0 0.0
04:36 13.9 13.8 99 1011.4 5.4 W 5.4 0.0 0.0
04:37 13.9 13.8 99 1011.4 4.5 W 5.4 0.0 0.0
04:38 13.9 13.8 99 1011.4 3.8 W 5.4 0.0 0.0
04:39 13.9 13.8 99 1011.4 4.5 W 5.4 0.0 0.0
04:40 13.9 13.8 99 1011.2 4.5 NW 5.4 0.0 0.0
04:41 13.9 13.8 99 1011.4 2.2 W 5.4 0.0 0.0
04:42 13.9 13.8 99 1011.4 3.1 W 5.4 0.0 0.0
04:43 13.9 13.8 99 1011.5 3.1 S 5.4 0.0 0.0
04:44 13.9 13.8 99 1011.4 3.1 W 5.4 0.0 0.0
04:45 13.9 13.8 99 1011.4 3.8 NW 5.4 0.0 0.0
04:46 13.9 13.8 99 1011.2 4.5 W 4.5 0.0 0.0
04:48 13.8 13.7 99 1011.3 3.1 W 4.5 0.0 0.0
04:49 13.8 13.7 99 1011.4 2.2 NW 4.5 0.0 0.0
04:50 13.8 13.7 99 1011.3 4.5 W 4.5 0.0 0.0
04:51 13.8 13.7 99 1011.3 1.6 NW 6.0 0.0 0.0
04:52 13.8 13.7 99 1011.3 1.6 NW 6.0 0.0 0.0
04:53 13.8 13.7 99 1011.4 3.1 NW 6.0 0.0 0.0
04:54 13.8 13.7 99 1011.2 2.2 W 6.0 0.0 0.0
04:55 13.8 13.7 99 1011.2 4.5 W 6.0 0.0 0.0
04:56 13.8 13.7 99 1011.2 4.5 W 6.0 0.0 0.0
04:57 13.8 13.7 99 1011.3 3.1 W 6.0 0.0 0.0
04:58 13.8 13.7 99 1011.1 3.1 W 6.0 0.0 0.0
04:59 13.8 13.7 99 1011.2 3.8 SW 6.0 0.0 0.0
05:00 13.8 13.7 99 1011.4 3.1 N 6.0 0.0 0.0
05:01 13.8 13.7 99 1011.3 3.1 N 4.5 0.0 0.0
05:03 13.8 13.7 99 1011.3 3.1 N 4.5 0.0 0.0
05:04 13.8 13.7 99 1011.4 3.1 N 4.5 0.0 0.0
05:05 13.8 13.7 99 1011.3 3.1 N 4.5 0.0 0.0
05:06 13.8 13.7 99 1011.2 3.1 N 3.8 0.0 0.0
05:07 13.8 13.7 99 1011.2 3.1 W 3.8 0.0 0.0
05:08 13.8 13.7 99 1011.2 3.1 W 3.8 0.0 0.0
05:09 13.8 13.7 99 1011.1 4.5 NW 4.5 0.0 0.0
05:10 13.8 13.7 99 1011.2 2.2 NW 4.5 0.0 0.0
05:11 13.8 13.7 99 1011.3 4.5 W 4.5 0.0 0.0
05:12 13.8 13.7 99 1011.2 3.1 W 4.5 0.0 0.0
05:13 13.8 13.7 99 1011.2 3.1 W 4.5 0.0 0.0
05:14 13.8 13.7 99 1011.4 3.1 W 4.5 0.0 0.0
05:15 13.8 13.7 99 1011.3 2.2 W 4.5 0.0 0.0
05:16 13.8 13.7 99 1011.4 2.2 W 4.5 0.0 0.0
05:17 13.8 13.7 99 1011.4 3.1 NW 4.5 0.0 0.0
05:19 13.8 13.7 99 1011.3 4.5 W 4.5 0.0 0.0
05:20 13.8 13.7 99 1011.3 4.5 W 4.5 0.0 0.0
05:21 13.8 13.7 99 1011.3 4.5 NW 4.5 0.0 0.0
05:22 13.8 13.7 99 1011.4 3.1 W 4.5 0.0 0.0
05:23 13.9 13.8 99 1011.2 3.8 NW 4.5 0.0 0.0
05:24 13.9 13.8 99 1011.2 3.8 NW 4.5 0.0 0.0
05:25 13.9 13.8 99 1011.2 3.8 NW 4.5 0.0 0.0
05:26 13.9 13.8 99 1011.2 3.8 W 4.5 0.0 0.0
05:27 13.9 13.8 99 1011.3 3.1 W 4.5 0.0 0.0
05:28 13.9 13.8 99 1011.2 2.2 SW 4.5 0.0 0.0
05:29 13.9 13.8 99 1011.3 3.1 W 4.5 0.0 0.0
05:30 13.9 13.8 99 1011.4 3.1 W 4.5 0.0 0.0
05:31 13.9 13.8 99 1011.4 3.1 SW 4.5 0.0 0.0
05:32 13.9 13.8 99 1011.3 4.5 W 4.5 0.0 0.0
05:33 13.9 13.8 99 1011.2 3.8 W 4.5 0.0 0.0
05:35 13.9 13.8 99 1011.3 2.2 NW 4.5 0.0 0.0
05:36 14.0 13.9 99 1011.3 3.1 W 4.5 0.0 0.0
05:37 14.0 13.9 99 1011.4 3.8 W 4.5 0.0 0.0
05:38 14.0 13.9 99 1011.2 3.8 W 4.5 0.0 0.0
05:39 14.0 13.9 99 1011.3 3.8 W 4.5 0.0 0.0
05:40 14.0 14.0 100 1011.3 3.8 W 4.5 0.0 0.0
05:41 14.0 14.0 100 1011.4 5.4 WNW 5.4 0.0 0.0
05:42 14.0 14.0 100 1011.3 3.1 W 5.4 0.0 0.0
05:43 14.0 14.0 100 1011.3 6.0 N 6.0 0.0 0.0
05:44 14.0 14.0 100 1011.5 5.4 W 6.0 0.0 0.0
05:45 14.0 14.0 100 1011.3 3.8 NW 8.3 0.0 0.0
05:46 14.0 14.0 100 1011.4 3.8 NW 8.3 0.0 0.0
05:47 14.1 14.1 100 1011.5 3.1 WSW 8.3 0.0 0.0
05:48 14.1 14.1 100 1011.4 4.5 W 8.3 0.0 0.0
05:49 14.1 14.1 100 1011.5 4.5 W 8.3 0.0 0.0
05:50 14.1 14.1 100 1011.4 8.3 SW 8.3 0.0 0.0
05:52 14.1 14.1 100 1011.5 6.0 W 8.3 0.0 0.0
05:53 14.1 14.1 100 1011.5 3.8 W 8.3 0.0 0.0
05:54 14.2 14.2 100 1011.5 6.0 S 8.3 0.0 0.0
05:55 14.2 14.2 100 1011.5 7.6 W 8.3 0.0 0.0
05:56 14.2 14.2 100 1011.5 7.6 W 8.3 0.0 0.0
05:57 14.2 14.2 100 1011.4 7.6 N 8.3 0.0 0.0
05:58 14.2 14.2 100 1011.4 6.9 W 8.3 0.0 0.0
05:59 14.2 14.2 100 1011.3 6.9 W 8.3 0.0 0.0
06:00 14.2 14.2 100 1011.5 6.9 W 8.3 0.0 0.0
06:01 14.3 14.3 100 1011.3 4.5 W 8.3 0.0 0.0
06:02 14.3 14.3 100 1011.5 4.5 W 7.6 0.0 0.0
06:03 14.3 14.3 100 1011.5 3.1 W 7.6 0.0 0.0
06:04 14.3 14.3 100 1011.2 7.6 SW 7.6 0.0 0.0
06:05 14.3 14.3 100 1011.4 7.6 SW 7.6 0.0 0.0
06:07 14.4 14.4 100 1011.4 5.4 SW 7.6 0.0 0.0
06:08 14.4 14.4 100 1011.5 5.4 W 7.6 0.0 0.0
06:09 14.4 14.4 100 1011.3 6.0 SW 7.6 0.0 0.0
06:10 14.4 14.4 100 1011.5 6.0 W 7.6 0.0 0.0
06:11 14.4 14.4 100 1011.2 6.9 W 7.6 0.0 0.0
06:12 14.4 14.4 100 1011.5 6.9 W 7.6 0.0 0.0
06:13 14.4 14.4 100 1011.6 4.5 W 7.6 0.0 0.0
06:14 14.4 14.4 100 1011.3 3.1 NW 7.6 0.0 0.0
06:15 14.4 14.4 100 1011.6 3.1 NW 7.6 0.0 0.0
06:16 14.4 14.4 100 1011.4 4.5 SW 6.9 0.0 0.0
06:17 14.4 14.4 100 1011.4 6.9 W 6.9 0.0 0.0
06:18 14.4 14.4 100 1011.4 6.9 W 6.9 0.0 0.0
06:19 14.4 14.4 100 1011.3 7.6 W 7.6 0.0 0.0
06:20 14.4 14.4 100 1011.4 5.4 NW 7.6 0.0 0.0
06:21 14.5 14.5 100 1011.4 4.5 NW 7.6 0.0 0.0
06:23 14.5 14.5 100 1011.3 6.0 W 7.6 0.0 0.0
06:24 14.5 14.5 100 1011.5 4.5 SW 7.6 0.0 0.0
06:25 14.5 14.5 100 1011.4 4.5 W 7.6 0.0 0.0
06:26 14.5 14.5 100 1011.5 8.3 NW 8.3 0.0 0.0
06:27 14.5 14.5 100 1011.5 7.6 W 8.3 0.0 0.0
06:28 14.5 14.5 100 1011.4 7.6 W 8.3 0.0 0.0
06:29 14.5 14.5 100 1011.4 5.4 N 9.8 0.0 0.0
06:30 14.5 14.5 100 1011.5 3.8 W 9.8 0.0 0.0
06:31 14.5 14.5 100 1011.5 4.5 W 9.8 0.0 0.0
06:32 14.5 14.5 100 1011.5 5.4 W 9.8 0.0 0.0
06:33 14.5 14.5 100 1011.3 7.6 NW 9.8 0.0 0.0
06:34 14.6 14.6 100 1011.4 7.6 W 9.8 0.0 0.0
06:35 14.6 14.6 100 1011.6 5.4 NW 9.8 0.0 0.0
06:36 14.6 14.6 100 1011.7 6.9 WNW 9.8 0.0 0.0
06:38 14.6 14.6 100 1011.4 3.8 NW 9.8 0.0 0.0
06:39 14.6 14.6 100 1011.4 4.5 SW 7.6 0.0 0.0
06:40 14.6 14.6 100 1011.6 3.8 SW 7.6 0.0 0.0
06:41 14.6 14.6 100 1011.6 4.5 W 7.6 0.0 0.0
06:42 14.6 14.6 100 1011.5 3.8 NW 7.6 0.0 0.0
06:43 14.6 14.6 100 1011.6 6.9 WNW 7.6 0.0 0.0
06:44 14.6 14.6 100 1011.6 6.9 WNW 7.6 0.0 0.0
06:45 14.6 14.6 100 1011.6 7.6 W 7.6 0.0 0.0
06:46 14.6 14.6 100 1011.5 7.6 WSW 7.6 0.0 0.0
06:47 14.6 14.6 100 1011.7 9.2 W 9.2 0.0 0.0
06:48 14.6 14.6 100 1011.5 9.2 NW 9.2 0.0 0.0
06:49 14.6 14.6 100 1011.6 6.0 SW 9.2 0.0 0.0
06:50 14.6 14.6 100 1011.7 11.4 SW 11.4 0.0 0.0
06:51 14.6 14.6 100 1011.7 8.3 N 11.4 0.0 0.0
06:52 14.6 14.6 100 1011.4 9.2 SE 11.4 0.0 0.0
06:53 14.6 14.6 100 1011.4 7.6 NW 11.4 0.0 0.0
06:55 14.6 14.6 100 1011.5 6.0 W 11.4 0.0 0.0
06:56 14.6 14.6 100 1011.6 3.8 NW 11.4 0.0 0.0
06:57 14.6 14.6 100 1011.4 6.0 WNW 11.4 0.0 0.0
06:58 14.6 14.6 100 1011.4 7.6 W 11.4 0.0 0.0
06:59 14.6 14.6 100 1011.4 5.4 W 11.4 0.0 0.0
07:00 14.6 14.6 100 1011.5 5.4 W 9.2 0.0 0.0
07:01 14.6 14.6 100 1011.4 5.4 W 9.2 0.0 0.0
07:02 14.6 14.6 100 1011.4 5.4 W 9.2 0.0 0.0
07:03 14.6 14.6 100 1011.6 5.4 W 9.2 0.0 0.0
07:04 14.6 14.6 100 1011.6 5.4 W 9.2 0.0 0.0
07:05 14.6 14.6 100 1011.5 5.4 W 7.6 0.0 0.0
07:06 14.6 14.6 100 1011.6 5.4 W 7.6 0.0 0.0
07:07 14.6 14.6 100 1011.5 5.4 W 7.6 0.0 0.0
07:08 14.6 14.6 100 1011.5 5.4 W 7.6 0.0 0.0
07:09 14.7 14.7 100 1011.6 7.6 W 7.6 0.0 0.0
07:10 14.7 14.7 100 1011.4 7.6 SW 7.6 0.0 0.0
07:11 14.7 14.7 100 1011.5 8.3 NW 8.3 0.0 0.0
07:12 14.7 14.7 100 1011.6 8.3 NW 8.3 0.0 0.0
07:14 14.7 14.7 100 1011.6 5.4 W 8.3 0.0 0.0
07:15 14.7 14.7 100 1011.7 4.5 NW 8.3 0.0 0.0
07:16 14.7 14.7 100 1011.7 5.4 NE 8.3 0.0 0.0
07:17 14.7 14.7 100 1011.7 3.8 W 8.3 0.0 0.0
07:18 14.7 14.7 100 1011.5 4.5 N 8.3 0.0 0.0
07:19 14.7 14.7 100 1011.7 5.4 W 8.3 0.0 0.0
07:20 14.7 14.7 100 1011.7 5.4 W 8.3 0.0 0.0
07:21 14.7 14.7 100 1011.7 6.0 SE 8.3 0.0 0.0
07:22 14.7 14.7 100 1011.6 5.4 W 8.3 0.0 0.0
07:23 14.7 14.7 100 1011.7 6.0 SW 6.0 0.0 0.0
07:24 14.8 14.8 100 1011.8 6.0 W 6.0 0.0 0.0
07:25 14.8 14.8 100 1011.7 5.4 W 6.0 0.0 0.0
07:26 14.8 14.8 100 1011.8 6.9 W 6.9 0.0 0.0
07:27 14.8 14.8 100 1011.8 6.9 SW 6.9 0.0 0.0
07:28 14.8 14.8 100 1011.7 4.5 SW 6.9 0.0 0.0
07:29 14.8 14.8 100 1011.9 8.3 NW 8.3 0.0 0.0
07:30 14.8 14.8 100 1011.8 8.3 N 8.3 0.0 0.0
07:31 14.8 14.8 100 1011.8 6.9 NW 8.3 0.0 0.0
07:32 14.8 14.8 100 1011.7 6.0 W 8.3 0.0 0.0
07:34 14.8 14.8 100 1011.7 6.0 W 8.3 0.0 0.0
07:35 14.8 14.8 100 1011.7 3.8 W 8.3 0.0 0.0
07:36 14.8 14.8 100 1011.7 5.4 WNW 8.3 0.0 0.0
07:37 14.8 14.8 100 1011.6 3.8 W 8.3 0.0 0.0
07:38 14.8 14.8 100 1011.6 3.8 W 8.3 0.0 0.0
07:39 14.8 14.8 100 1011.8 6.0 NW 8.3 0.0 0.0
07:40 14.9 14.9 100 1011.9 6.9 W 8.3 0.0 0.0
07:41 14.9 14.9 100 1011.9 4.5 W 6.9 0.0 0.0
07:42 14.9 14.9 100 1011.8 4.5 W 6.9 0.0 0.0
07:43 14.9 14.9 100 1011.8 4.5 NE 6.9 0.0 0.0
07:44 14.9 14.9 100 1011.8 6.0 NW 6.9 0.0 0.0
07:45 14.9 14.9 100 1011.7 5.4 W 6.9 0.0 0.0
07:46 14.9 14.9 100 1011.6 6.0 NW 6.9 0.0 0.0
07:47 15.0 15.0 100 1012.0 3.1 NW 6.9 0.0 0.0
07:48 15.0 15.0 100 1011.8 6.9 NW 6.9 0.0 0.0
07:49 15.0 15.0 100 1011.9 9.2 SE 9.2 0.0 0.0
07:50 15.0 15.0 100 1011.9 9.2 N 9.2 0.0 0.0
07:51 15.0 15.0 100 1011.9 3.8 W 9.2 0.0 0.0
07:53 15.0 15.0 100 1011.8 7.6 WNW 9.2 0.0 0.0
07:54 15.0 15.0 100 1011.9 6.9 WNW 9.2 0.0 0.0
07:55 15.0 15.0 100 1012.0 6.9 SW 9.2 0.0 0.0
07:56 15.0 15.0 100 1011.9 6.9 NW 9.2 0.0 0.0
07:57 15.0 15.0 100 1011.7 4.5 W 9.2 0.0 0.0
07:58 15.0 15.0 100 1011.7 4.5 W 9.2 0.0 0.0
07:59 15.0 15.0 100 1011.7 7.6 N 9.2 0.0 0.0
08:00 15.0 15.0 100 1011.7 7.6 NW 9.2 0.0 0.0
08:01 15.0 15.0 100 1011.9 7.6 NW 9.2 0.0 0.0
08:02 15.1 15.1 100 1011.9 4.5 W 9.2 0.0 0.0
08:03 15.1 15.1 100 1011.6 5.4 W 7.6 0.0 0.0
08:04 15.1 15.1 100 1011.9 8.3 NW 8.3 0.0 0.0
08:05 15.1 15.1 100 1011.9 7.6 W 8.3 0.0 0.0
08:06 15.1 15.1 100 1011.9 5.4 W 9.2 0.0 0.0
08:07 15.1 15.1 100 1011.9 5.4 W 9.2 0.0 0.0
08:08 15.1 15.1 100 1011.9 4.5 W 9.2 0.0 0.0
08:10 15.2 15.2 100 1012.0 4.5 W 9.2 0.0 0.0
08:11 15.2 15.2 100 1011.9 3.8 W 9.2 0.0 0.0
08:12 15.2 15.2 100 1011.9 6.0 SW 9.2 0.0 0.0
08:13 15.2 15.2 100 1012.1 6.0 W 9.2 0.0 0.0
08:14 15.2 15.2 100 1011.9 3.8 N 9.2 0.0 0.0
08:15 15.2 15.2 100 1011.9 4.5 W 9.2 0.0 0.0
08:16 15.2 15.2 100 1012.2 4.5 NW 6.0 0.0 0.0
08:17 15.3 15.3 100 1012.1 4.5 W 6.0 0.0 0.0
08:18 15.3 15.3 100 1012.0 3.8 W 6.0 0.0 0.0
08:19 15.3 15.3 100 1012.1 4.5 W 6.0 0.0 0.0
08:20 15.3 15.3 100 1012.1 4.5 W 6.0 0.0 0.0
08:21 15.4 15.4 100 1011.9 4.5 W 6.0 0.0 0.0
08:22 15.4 15.4 100 1012.0 6.9 W 6.9 0.0 0.0
08:23 15.4 15.4 100 1012.3 6.0 W 6.9 0.0 0.0
08:24 15.4 15.4 100 1012.0 6.0 W 6.9 0.0 0.0
08:26 15.4 15.4 100 1012.1 7.6 W 7.6 0.0 0.0
08:27 15.4 15.4 100 1012.3 5.4 NW 7.6 0.0 0.0
08:28 15.4 15.4 100 1012.2 6.0 WNW 7.6 0.0 0.0
08:29 15.4 15.4 100 1012.2 6.0 WNW 7.6 0.0 0.0
08:30 15.4 15.4 100 1012.1 4.5 W 7.6 0.0 0.0
08:31 15.5 15.5 100 1012.0 8.3 W 8.3 0.0 0.0
08:32 15.5 15.5 100 1012.1 7.6 SW 8.3 0.0 0.0
08:33 15.4 15.4 100 1012.2 9.8 W 9.8 0.0 0.0
08:34 15.4 15.4 100 1012.2 6.9 NW 9.8 0.0 0.0
08:35 15.4 15.3 99 1012.2 6.9 W 9.8 0.0 0.0
08:36 15.4 15.3 99 1012.3 6.0 SW 9.8 0.0 0.0
08:37 15.4 15.3 99 1012.2 6.0 W 9.8 0.0 0.0
08:38 15.4 15.3 99 1012.2 6.0 NW 9.8 0.0 0.0
08:39 15.4 15.3 99 1012.2 7.6 W 9.8 0.0 0.0
08:40 15.4 15.3 99 1012.2 3.8 W 9.8 0.0 0.0
08:41 15.4 15.3 99 1012.2 6.0 W 9.8 0.0 0.0
08:43 15.4 15.3 99 1012.2 9.8 SW 9.8 0.0 0.0
08:44 15.4 15.3 99 1012.2 9.8 W 9.8 0.0 0.0
08:45 15.4 15.3 99 1012.2 9.2 NW 9.8 0.0 0.0
08:46 15.4 15.3 99 1012.3 7.6 NW 9.8 0.0 0.0
08:47 15.4 15.3 99 1012.2 9.8 SW 9.8 0.0 0.0
08:48 15.4 15.3 99 1012.2 9.8 SW 9.8 0.0 0.0
08:49 15.5 15.4 99 1012.3 7.6 SW 9.8 0.0 0.0
08:50 15.5 15.4 99 1012.2 9.8 NW 9.8 0.0 0.0
08:51 15.5 15.4 99 1012.2 9.8 W 9.8 0.0 0.0
08:52 15.5 15.4 99 1012.3 6.9 W 9.8 0.0 0.0
08:53 15.6 15.3 98 1012.1 7.6 W 9.8 0.0 0.0
08:54 15.6 15.3 98 1012.2 6.9 SE 9.8 0.0 0.0
08:55 15.7 15.4 98 1012.3 7.6 N 9.8 0.0 0.0
08:56 15.7 15.4 98 1012.1 6.0 NW 9.8 0.0 0.0
08:57 15.8 15.5 98 1012.3 6.9 NE 9.8 0.0 0.0
08:58 15.8 15.5 98 1012.2 6.9 SW 9.8 0.0 0.0
09:00 15.8 15.5 98 1012.1 9.2 W 9.8 0.0 0.0
09:01 15.8 15.5 98 1012.3 9.2 W 9.2 0.0 0.0
09:02 15.8 15.5 98 1012.3 9.2 W 9.2 0.0 0.0
09:03 15.8 15.5 98 1012.2 9.2 W 9.2 0.0 0.0
09:04 15.8 15.5 98 1012.3 9.2 W 9.2 0.0 0.0
09:05 15.8 15.5 98 1012.3 9.2 W 9.2 0.0 0.0
09:06 16.0 15.5 97 1012.2 6.9 SW 9.2 0.0 0.0
09:07 16.0 15.5 97 1012.2 6.0 W 9.2 0.0 0.0
09:08 16.0 15.4 96 1012.4 4.5 W 9.2 0.0 0.0
09:09 16.0 15.4 96 1012.2 9.2 W 9.2 0.0 0.0
09:10 16.1 15.5 96 1012.4 6.0 W 9.2 0.0 0.0
09:11 16.1 15.5 96 1012.5 5.4 SW 9.2 0.0 0.0
09:12 16.1 15.5 96 1012.5 7.6 W 9.2 0.0 0.0
09:13 16.1 15.5 96 1012.2 7.6 W 9.2 0.0 0.0
09:14 16.1 15.3 95 1012.5 7.6 NW 9.2 0.0 0.0
09:15 16.0 15.2 95 1012.4 9.2 NW 9.2 0.0 0.0
09:16 16.0 15.2 95 1012.1 9.8 SW 9.8 0.0 0.0
09:18 16.0 15.0 94 1012.5 8.3 W 9.8 0.0 0.0
09:19 16.0 15.0 94 1012.3 7.6 N 9.8 0.0 0.0
09:20 16.1 15.1 94 1012.2 6.9 SW 9.8 0.0 0.0
09:21 16.1 15.1 94 1012.2 10.7 NW 10.7 0.0 0.0
09:22 16.1 15.1 94 1012.2 10.7 NW 10.7 0.0 0.0
09:23 16.1 15.1 94 1012.4 10.7 NW 10.7 0.0 0.0
09:24 16.1 15.1 94 1012.2 9.2 NW 10.7 0.0 0.0
09:25 16.1 15.1 94 1012.2 11.4 SW 11.4 0.0 0.0
09:26 16.1 15.0 93 1012.3 8.3 NW 13.0 0.0 0.0
09:27 16.1 15.0 93 1012.3 7.6 W 13.0 0.0 0.0
09:28 16.1 15.0 93 1012.3 8.3 W 13.0 0.0 0.0
09:29 16.1 15.0 93 1012.4 10.7 W 13.0 0.0 0.0
09:30 16.1 15.0 93 1012.2 6.0 NW 13.0 0.0 0.0
09:31 16.1 14.8 92 1012.1 7.6 W 13.0 0.0 0.0
09:32 16.1 14.8 92 1012.2 7.6 WSW 13.0 0.0 0.0
09:33 16.1 14.8 92 1012.2 12.1 SW 13.0 0.0 0.0
09:35 16.2 14.7 91 1012.4 7.6 SW 13.0 0.0 0.0
09:36 16.2 14.7 91 1012.2 7.6 W 13.0 0.0 0.0
09:37 16.2 14.7 91 1012.5 9.8 W 13.0 0.0 0.0
09:38 16.2 14.7 91 1012.2 7.6 W 13.0 0.0 0.0
09:39 16.3 14.8 91 1012.3 9.2 W 13.0 0.0 0.0
09:40 16.3 14.8 91 1012.3 9.2 W 13.0 0.0 0.0
09:41 16.3 14.8 91 1012.1 10.7 SW 13.0 0.0 0.0
09:42 16.3 14.8 91 1012.2 9.2 N 13.0 0.0 0.0
09:43 16.3 14.8 91 1012.1 7.6 W 13.0 0.0 0.0
09:44 16.3 14.8 91 1012.2 7.6 NW 13.0 0.0 0.0
09:45 16.3 14.8 91 1012.2 8.3 W 11.4 0.0 0.0
09:46 16.3 14.7 90 1012.3 15.2 W 15.2 0.0 0.0
09:47 16.3 14.7 90 1012.5 9.8 W 15.2 0.0 0.0
09:48 16.3 14.7 90 1012.4 11.4 SW 15.2 0.0 0.0
09:49 16.3 14.7 90 1012.4 7.6 SW 15.2 0.0 0.0
09:50 16.2 14.6 90 1012.3 7.6 NW 15.2 0.0 0.0
09:52 16.2 14.6 90 1012.2 8.3 W 15.2 0.0 0.0
09:53 16.2 14.6 90 1012.4 9.8 W 15.2 0.0 0.0
09:54 16.1 14.5 90 1012.2 7.6 W 15.2 0.0 0.0
09:55 16.1 14.5 90 1012.4 7.6 W 15.2 0.0 0.0
09:56 16.1 14.5 90 1012.5 8.3 SW 15.2 0.0 0.0
09:57 16.1 14.5 90 1012.5 8.3 SW 11.4 0.0 0.0
09:58 16.1 14.5 90 1012.4 8.3 SW 11.4 0.0 0.0
09:59 16.2 14.6 90 1012.4 6.0 NW 9.8 0.0 0.0
10:00 16.2 14.6 90 1012.5 6.9 N 9.8 0.0 0.0
10:01 16.2 14.6 90 1012.5 6.9 N 9.8 0.0 0.0
10:02 16.2 14.6 90 1012.4 6.9 N 9.8 0.0 0.0
10:03 16.2 14.6 90 1012.5 6.9 N 9.8 0.0 0.0
10:04 16.2 14.6 90 1012.1 6.9 N 8.3 0.0 0.0
10:05 16.3 14.7 90 1012.2 9.2 W 9.2 0.0 0.0
10:06 16.3 14.7 90 1012.3 9.2 NW 9.2 0.0 0.0
10:07 16.3 14.5 89 1012.2 7.6 NW 9.2 0.0 0.0
10:09 16.4 14.8 90 1012.5 8.3 N 9.2 0.0 0.0
10:10 16.5 14.9 90 1012.1 7.6 W 9.2 0.0 0.0
10:11 16.6 15.0 90 1012.2 11.4 W 11.4 0.0 0.0
10:12 16.7 15.1 90 1012.2 10.7 SW 11.4 0.0 0.0
10:13 16.8 15.2 90 1012.2 11.4 SW 11.4 0.0 0.0
10:14 16.8 15.2 90 1012.2 11.4 SW 11.4 0.0 0.0
10:15 16.9 15.3 90 1012.1 13.6 W 13.6 0.0 0.0
10:16 16.9 15.3 90 1012.4 9.2 NW 13.6 0.0 0.0
10:17 16.9 15.1 89 1012.5 11.4 NW 13.6 0.0 0.0
10:18 16.9 15.1 89 1012.2 13.0 W 13.6 0.0 0.0
10:19 17.0 15.2 89 1012.1 7.6 W 13.6 0.0 0.0
10:20 17.0 15.2 89 1012.4 7.6 NW 13.6 0.0 0.0
10:21 17.0 15.2 89 1012.2 9.2 SW 13.6 0.0 0.0
10:22 17.0 15.2 89 1012.5 8.3 SW 13.6 0.0 0.0
10:23 17.0 15.0 88 1012.4 10.7 W 13.6 0.0 0.0
10:24 17.0 15.0 88 1012.4 10.7 W 13.6 0.0 0.0
10:26 17.0 14.8 87 1012.3 8.3 W 13.0 0.0 0.0
10:27 16.9 14.6 86 1012.4 7.6 W 13.0 0.0 0.0
10:28 16.9 14.6 86 1012.3 6.0 NW 13.0 0.0 0.0
10:29 16.9 14.6 86 1012.4 5.4 W 10.7 0.0 0.0
10:30 16.9 14.6 86 1012.3 9.2 NW 10.7 0.0 0.0
10:31 16.9 14.6 86 1012.3 14.5 SW 14.5 0.0 0.0
10:32 16.9 14.6 86 1012.2 14.5 NW 14.5 0.0 0.0
10:33 16.8 14.5 86 1012.5 6.9 NW 14.5 0.0 0.0
10:34 16.9 14.6 86 1012.5 9.8 W 14.5 0.0 0.0
10:35 16.9 14.6 86 1012.2 7.6 NW 14.5 0.0 0.0
10:36 16.9 14.6 86 1012.4 6.9 SW 14.5 0.0 0.0
10:37 17.0 14.7 86 1012.3 6.0 W 14.5 0.0 0.0
10:38 17.0 14.7 86 1012.1 6.9 SW 14.5 0.0 0.0
10:39 17.0 14.7 86 1012.2 13.0 SW 14.5 0.0 0.0
10:40 17.0 14.7 86 1012.4 8.3 W 14.5 0.0 0.0
10:41 17.0 14.5 85 1012.3 11.4 W 14.5 0.0 0.0
10:42 17.0 14.5 85 1012.3 12.1 SW 13.0 0.0 0.0
10:44 17.0 14.5 85 1012.4 10.7 SW 13.0 0.0 0.0
10:45 17.1 14.6 85 1012.2 9.8 NW 13.0 0.0 0.0
10:46 17.1 14.7 86 1012.2 10.7 NW 13.0 0.0 0.0
10:47 17.2 14.8 86 1012.1 8.3 W 13.0 0.0 0.0
10:48 17.2 14.8 86 1012.1 8.3 W 13.0 0.0 0.0
10:49 17.3 14.9 86 1012.2 10.7 NW 13.0 0.0 0.0
10:50 17.3 14.8 85 1012.3 9.8 S 12.1 0.0 0.0
10:51 17.4 14.9 85 1012.5 7.6 NW 12.1 0.0 0.0
10:52 17.3 14.8 85 1012.4 9.2 SW 12.1 0.0 0.0
10:53 17.3 14.6 84 1012.2 7.6 NW 10.7 0.0 0.0
10:54 17.3 14.6 84 1012.5 6.9 W 10.7 0.0 0.0
10:55 17.3 14.6 84 1012.3 9.8 N 10.7 0.0 0.0
10:56 17.3 14.6 84 1012.1 9.2 NW 10.7 0.0 0.0
10:57 17.3 14.4 83 1012.1 9.2 SW 10.7 0.0 0.0
10:59 17.6 14.3 81 1012.2 13.6 SW 13.6 0.0 0.0
11:00 17.6 14.3 81 1012.3 13.6 SW 13.6 0.0 0.0
11:01 17.6 14.3 81 1012.5 13.6 SW 13.6 0.0 0.0
11:02 17.6 14.3 81 1012.2 13.6 SW 13.6 0.0 0.0
11:03 17.6 14.3 81 1012.4 13.6 SW 13.6 0.0 0.0
11:04 17.6 14.3 81 1012.4 13.6 SW 13.6 0.0 0.0
11:05 17.6 14.3 81 1012.0 13.6 SW 13.6 0.0 0.0
11:06 17.6 14.1 80 1012.1 11.4 W 13.6 0.0 0.0
11:07 17.6 14.1 80 1012.1 11.4 W 13.6 0.0 0.0
11:08 17.6 13.9 79 1012.2 13.0 SW 13.6 0.0 0.0
11:09 17.6 13.9 79 1012.3 8.3 SW 13.6 0.0 0.0
11:10 17.7 14.0 79 1012.4 7.6 N 13.6 0.0 0.0
11:11 17.7 14.2 80 1012.2 9.8 N 13.6 0.0 0.0
11:12 17.7 14.2 80 1012.1 8.3 W 13.6 0.0 0.0
11:13 17.8 14.1 79 1012.2 6.9 W 13.6 0.0 0.0
11:14 17.9 14.4 80 1012.2 6.9 SW 13.6 0.0 0.0
11:16 18.1 14.6 80 1012.3 9.2 W 13.0 0.0 0.0
11:17 18.2 14.7 80 1012.3 11.4 W 13.0 0.0 0.0
11:18 18.3 14.8 80 1012.3 11.4 W 13.0 0.0 0.0
11:19 18.4 14.9 80 1012.4 10.7 NW 11.4 0.0 0.0
11:20 18.3 14.6 79 1012.2 10.7 SW 11.4 0.0 0.0
11:21 18.3 14.4 78 1012.2 11.4 W 11.4 0.0 0.0
11:22 18.3 14.4 78 1012.3 11.4 W 11.4 0.0 0.0
11:24 18.1 14.0 77 1012.3 10.7 W 11.4 0.0 0.0
11:25 18.0 13.9 77 1012.2 10.7 NW 11.4 0.0 0.0
11:26 18.0 13.9 77 1012.2 9.2 W 11.4 0.0 0.0
11:27 17.9 13.6 76 1012.3 13.0 W 13.0 0.0 0.0
11:28 17.9 13.6 76 1012.3 13.0 W 13.0 0.0 0.0
11:29 17.8 13.5 76 1012.3 13.0 NW 13.0 0.0 0.0
11:30 17.8 13.5 76 1012.2 9.8 W 13.0 0.0 0.0
11:31 17.9 13.6 76 1012.3 10.7 W 13.0 0.0 0.0
11:32 18.0 13.7 76 1012.1 13.6 SW 13.6 0.0 0.0
11:33 18.1 14.0 77 1012.0 9.2 W 13.6 0.0 0.0
11:34 18.4 14.7 79 1012.2 6.9 SW 13.6 0.0 0.0
11:35 18.6 14.9 79 1012.2 9.2 W 13.6 0.0 0.0
11:36 18.7 15.0 79 1012.1 11.4 SW 13.6 0.0 0.0
11:37 18.7 15.0 79 1012.1 9.2 W 13.6 0.0 0.0
11:38 18.8 15.1 79 1012.1 9.8 SW 13.6 0.0 0.0
11:39 18.8 14.9 78 1012.1 4.5 E 13.6 0.0 0.0
11:42 18.7 14.6 77 1012.3 9.8 NW 11.4 0.0 0.0
11:43 18.6 14.3 76 1012.4 9.2 NW 11.4 0.0 0.0
11:44 18.6 14.3 76 1012.2 10.7 NW 11.4 0.0 0.0
11:45 18.5 14.2 76 1012.5 8.3 NW 11.4 0.0 0.0
11:46 18.4 14.1 76 1012.3 9.8 W 10.7 0.0 0.0
11:47 18.3 14.0 76 1012.4 9.2 W 10.7 0.0 0.0
11:48 18.2 13.9 76 1012.3 6.9 N 10.7 0.0 0.0
11:49 18.2 13.9 76 1012.4 9.2 W 10.7 0.0 0.0
11:50 18.0 13.7 76 1012.4 7.6 W 10.7 0.0 0.0
11:51 18.0 13.7 76 1012.5 9.8 W 10.7 0.0 0.0
11:52 17.9 13.6 76 1012.3 8.3 W 10.7 0.0 0.0
11:53 17.9 13.8 77 1012.4 9.8 SW 10.7 0.0 0.0
11:54 17.8 13.7 77 1012.2 9.8 W 10.7 0.0 0.0
11:55 17.7 13.8 78 1012.5 10.7 W 10.7 0.0 0.0
11:56 17.7 13.8 78 1012.6 10.7 W 10.7 0.0 0.0
11:57 17.6 13.7 78 1012.5 8.3 W 10.7 0.0 0.0
11:58 17.6 13.7 78 1012.5 9.2 WSW 10.7 0.0 0.0
11:59 17.6 13.9 79 1012.4 6.9 SW 10.7 0.0 0.0
12:01 17.6 13.9 79 1012.5 6.9 SW 10.7 0.0 0.0
12:02 17.6 13.9 79 1012.3 6.9 SW 10.7 0.0 0.0
12:03 17.6 13.9 79 1012.3 6.9 SW 10.7 0.0 0.0
12:04 17.6 13.9 79 1012.4 6.9 SW 10.7 0.0 0.0
12:05 17.6 13.9 79 1012.4 12.1 SW 12.1 0.0 0.0
12:06 17.7 14.0 79 1012.3 11.4 W 12.1 0.0 0.0
12:07 17.7 14.0 79 1012.3 11.4 NNW 12.1 0.0 0.0
12:08 17.9 14.2 79 1012.2 9.2 SW 12.1 0.0 0.0
12:09 18.0 14.3 79 1012.3 9.2 W 12.1 0.0 0.0
12:10 18.2 14.5 79 1012.2 9.2 SW 12.1 0.0 0.0
12:11 18.3 14.6 79 1012.2 13.0 SW 13.0 0.0 0.0
12:12 18.3 14.6 79 1012.3 12.1 SW 13.0 0.0 0.0
12:13 18.3 14.6 79 1012.3 11.4 SW 13.0 0.0 0.0
12:14 18.3 14.4 78 1012.2 10.7 NW 13.0 0.0 0.0
12:15 18.2 13.9 76 1012.4 9.8 W 13.0 0.0 0.0
12:16 18.1 13.8 76 1012.2 11.4 SW 13.0 0.0 0.0
12:17 18.1 13.8 76 1012.3 7.6 W 13.0 0.0 0.0
12:18 18.1 13.8 76 1012.2 9.8 SW 13.0 0.0 0.0
12:20 18.3 14.6 79 1012.3 12.1 W 13.0 0.0 0.0
12:21 18.3 14.6 79 1012.1 12.1 W 12.1 0.0 0.0
12:22 18.5 14.8 79 1012.2 9.2 W 12.1 0.0 0.0
12:23 18.5 14.4 77 1012.2 7.6 SW 12.1 0.0 0.0
12:24 18.5 14.4 77 1012.2 7.6 SW 12.1 0.0 0.0
12:25 18.5 14.4 77 1012.2 7.6 SW 12.1 0.0 0.0
12:26 18.5 14.2 76 1012.4 6.9 W 12.1 0.0 0.0
12:27 18.5 14.2 76 1012.4 9.8 W 12.1 0.0 0.0
12:28 18.4 14.1 76 1012.2 7.6 SW 12.1 0.0 0.0
12:29 18.4 14.1 76 1012.4 7.6 W 12.1 0.0 0.0
12:30 18.2 13.7 75 1012.4 11.4 W 12.1 0.0 0.0
12:31 18.2 13.7 75 1012.1 10.7 SW 12.1 0.0 0.0
12:32 18.1 13.6 75 1012.3 9.8 SW 11.4 0.0 0.0
12:33 18.1 13.6 75 1012.2 9.2 W 11.4 0.0 0.0
12:34 18.0 13.5 75 1012.4 9.2 W 11.4 0.0 0.0
12:35 17.9 13.4 75 1012.3 9.8 W 11.4 0.0 0.0
12:37 17.8 13.3 75 1012.2 11.4 SW 11.4 0.0 0.0
12:38 17.8 13.3 75 1012.3 9.2 NW 11.4 0.0 0.0
12:39 17.7 13.4 76 1012.2 7.6 SW 11.4 0.0 0.0
12:40 17.7 13.4 76 1012.6 9.2 SW 11.4 0.0 0.0
12:41 17.6 13.3 76 1012.2 9.8 SW 11.4 0.0 0.0
12:42 17.6 13.3 76 1012.5 11.4 SW 11.4 0.0 0.0
12:43 17.5 13.2 76 1012.6 12.1 SW 13.6 0.0 0.0
12:44 17.5 13.4 77 1012.4 9.8 SW 13.6 0.0 0.0
12:45 17.5 13.4 77 1012.4 9.8 SW 13.6 0.0 0.0
12:46 17.4 13.9 80 1012.4 11.4 W 13.6 0.0 0.0
12:47 17.4 13.9 80 1012.4 9.8 SW 13.6 0.0 0.0
12:48 17.4 13.9 80 1012.3 7.6 SW 13.6 0.0 0.0
12:49 17.4 13.9 80 1012.6 5.4 SW 13.6 0.0 0.0
12:50 17.4 14.1 81 1012.3 6.0 W 13.6 0.0 0.0
12:51 17.5 13.8 79 1012.3 8.3 W 13.6 0.0 0.0
12:52 17.6 13.9 79 1012.3 7.6 W 13.6 0.0 0.0
12:53 17.7 14.0 79 1012.4 11.4 SW 12.1 0.0 0.0
12:54 17.7 14.2 80 1012.2 8.3 W 11.4 0.0 0.0
12:55 17.9 14.4 80 1012.2 8.3 W 11.4 0.0 0.0
12:56 18.0 14.5 80 1012.3 6.9 W 11.4 0.0 0.0
12:57 18.1 14.6 80 1012.2 6.9 SW 11.4 0.0 0.0
12:58 18.1 14.6 80 1012.3 9.2 W 11.4 0.0 0.0
12:59 18.1 14.4 79 1012.2 14.5 W 14.5 0.0 0.0
13:00 18.1 14.4 79 1012.3 14.5 W 14.5 0.0 0.0
13:01 18.1 14.4 79 1012.5 14.5 W 14.5 0.0 0.0
13:03 18.1 14.4 79 1012.3 14.5 W 14.5 0.0 0.0
13:04 18.1 14.4 79 1012.4 14.5 W 14.5 0.0 0.0
13:05 17.8 13.9 78 1012.6 13.0 SW 14.5 0.0 0.0
13:06 17.8 13.9 78 1012.4 9.8 W 14.5 0.0 0.0
13:07 17.7 13.8 78 1012.4 9.2 S 14.5 0.0 0.0
13:08 17.7 13.8 78 1012.4 9.2 S 14.5 0.0 0.0
13:09 17.7 13.8 78 1012.5 9.8 W 14.5 0.0 0.0
13:10 17.7 13.8 78 1012.3 7.6 SW 14.5 0.0 0.0
13:11 17.7 13.8 78 1012.3 6.9 W 14.5 0.0 0.0
13:12 17.7 13.8 78 1012.2 9.2 W 14.5 0.0 0.0
13:13 17.6 13.7 78 1012.3 9.2 NW 14.5 0.0 0.0
13:14 17.6 13.9 79 1012.5 9.2 S 14.5 0.0 0.0
13:15 17.6 13.9 79 1012.3 8.3 SW 14.5 0.0 0.0
13:16 17.6 13.9 79 1012.3 8.3 SW 9.8 0.0 0.0
13:17 17.6 13.9 79 1012.3 8.3 W 9.8 0.0 0.0
13:18 17.6 13.9 79 1012.1 10.7 NW 10.7 0.0 0.0
13:19 17.6 13.9 79 1012.4 9.2 W 10.7 0.0 0.0
13:20 17.6 13.9 79 1012.3 9.8 N 10.7 0.0 0.0
13:21 17.6 13.9 79 1012.6 8.3 NNW 10.7 0.0 0.0
13:22 17.5 13.8 79 1012.2 10.7 SW 10.7 0.0 0.0
13:23 17.5 13.8 79 1012.6 13.0 SW 13.0 0.0 0.0
13:24 17.5 13.8 79 1012.3 13.0 SW 13.0 0.0 0.0
13:25 17.5 13.8 79 1012.6 12.1 S 13.0 0.0 0.0
13:26 17.5 13.8 79 1012.3 8.3 SW 13.0 0.0 0.0
13:27 17.4 14.1 81 1012.3 9.8 W 13.0 0.0 0.0
13:28 17.4 14.1 81 1012.3 9.8 W 13.0 0.0 0.0
13:29 17.4 14.1 81 1012.3 9.2 SW 13.0 0.0 0.0
13:30 17.4 14.1 81 1012.3 14.5 SW 14.5 0.0 0.0
13:31 17.4 14.3 82 1012.3 13.0 SW 14.5 0.0 0.0
13:32 17.3 14.2 82 1012.3 13.0 S 14.5 0.0 0.0
13:33 17.3 14.0 81 1012.4 9.2 W 14.5 0.0 0.0
13:34 17.3 14.0 81 1012.3 9.2 W 14.5 0.0 0.0
13:36 17.4 14.3 82 1012.2 11.4 SW 14.5 0.0 0.0
13:37 17.5 14.0 80 1012.2 9.2 W 14.5 0.0 0.0
13:38 17.5 14.0 80 1012.3 9.8 SW 14.5 0.0 0.0
13:39 17.6 14.1 80 1012.5 9.8 W 14.5 0.0 0.0
13:40 17.6 14.1 80 1012.5 9.8 W 14.5 0.0 0.0
13:41 17.6 14.1 80 1012.5 10.7 W 14.5 0.0 0.0
13:42 17.6 14.1 80 1012.4 11.4 W 13.0 0.0 0.0
13:43 17.6 13.9 79 1012.5 10.7 W 11.4 0.0 0.0
13:44 17.6 13.9 79 1012.3 8.3 SW 11.4 0.0 0.0
13:45 17.6 13.9 79 1012.5 8.3 SW 11.4 0.0 0.0
13:46 17.7 14.0 79 1012.4 8.3 W 11.4 0.0 0.0
13:47 17.7 14.0 79 1012.6 18.3 SW 18.3 0.0 0.0
13:48 17.7 14.0 79 1012.4 9.8 SW 18.3 0.0 0.0
13:49 17.7 14.0 79 1012.4 9.8 SW 18.3 0.0 0.0
13:50 17.7 14.0 79 1012.2 8.3 W 18.3 0.0 0.0
13:51 17.8 14.1 79 1012.4 8.3 SW 18.3 0.0 0.0
13:52 17.8 14.1 79 1012.2 9.8 W 18.3 0.0 0.0
13:54 17.9 14.2 79 1012.3 6.9 SW 18.3 0.0 0.0
13:55 17.9 14.2 79 1012.2 6.9 SW 18.3 0.0 0.0
13:56 17.9 14.4 80 1012.3 10.7 W 18.3 0.0 0.0
13:57 17.9 14.4 80 1012.3 10.7 WSW 10.7 0.0 0.0
13:58 17.9 14.4 80 1012.3 10.7 WSW 10.7 0.0 0.0
13:59 17.9 14.2 79 1012.2 7.6 W 10.7 0.0 0.0
14:00 17.9 14.2 79 1012.2 9.8 W 10.7 0.0 0.0
14:01 17.9 14.2 79 1012.4 9.8 W 10.7 0.0 0.0
14:02 17.9 14.2 79 1012.3 9.8 W 10.7 0.0 0.0
14:03 17.9 14.2 79 1012.2 9.8 W 10.7 0.0 0.0
14:04 17.9 14.2 79 1012.3 9.8 W 10.7 0.0 0.0
14:05 17.9 14.2 79 1012.5 9.8 W 10.7 0.0 0.0
14:06 17.9 14.2 79 1012.1 9.8 W 10.7 0.0 0.0
14:07 17.8 14.3 80 1012.4 10.7 NE 10.7 0.0 0.0
14:08 17.8 14.3 80 1012.3 9.8 W 10.7 0.0 0.0
14:09 17.8 14.3 80 1012.2 7.6 W 10.7 0.0 0.0
14:10 17.9 14.4 80 1012.4 11.4 SW 11.4 0.0 0.0
14:11 18.0 14.5 80 1012.3 11.4 SW 11.4 0.0 0.0
14:13 18.1 14.6 80 1012.2 9.8 SW 11.4 0.0 0.0
14:14 18.1 14.6 80 1012.1 9.8 SW 11.4 0.0 0.0
14:15 18.2 14.7 80 1012.3 11.4 S 11.4 0.0 0.0
14:16 18.2 14.7 80 1012.2 10.7 SW 11.4 0.0 0.0
14:17 18.3 14.8 80 1012.2 11.4 W 11.4 0.0 0.0
14:18 18.3 14.8 80 1012.2 11.4 W 11.4 0.0 0.0
14:19 18.4 14.9 80 1012.3 11.4 W 11.4 0.0 0.0
14:20 18.5 15.0 80 1012.3 9.8 W 11.4 0.0 0.0
14:21 18.5 14.8 79 1012.3 13.0 W 13.0 0.0 0.0
14:22 18.5 14.8 79 1012.1 15.2 SW 15.2 0.0 0.0
14:23 18.5 14.8 79 1012.2 11.4 W 15.2 0.0 0.0
14:24 18.5 14.8 79 1012.3 9.8 W 15.2 0.0 0.0
14:25 18.5 14.8 79 1012.3 9.2 NW 15.2 0.0 0.0
14:26 18.6 14.7 78 1012.2 13.0 SW 15.2 0.0 0.0
14:27 18.6 14.7 78 1012.4 13.0 W 15.2 0.0 0.0
14:28 18.6 14.5 77 1012.2 11.4 SW 15.2 0.0 0.0
14:29 18.6 14.5 77 1012.3 10.7 SW 15.2 0.0 0.0
14:30 18.6 14.3 76 1012.2 11.4 SW 15.2 0.0 0.0
14:32 18.5 14.2 76 1012.2 9.8 SW 15.2 0.0 0.0
14:33 18.5 14.4 77 1012.4 6.9 W 13.0 0.0 0.0
14:34 18.5 14.4 77 1012.2 8.3 W 13.0 0.0 0.0
14:35 18.5 14.4 77 1012.2 8.3 SW 13.0 0.0 0.0
14:36 18.5 14.2 76 1012.2 8.3 SW 13.0 0.0 0.0
14:37 18.5 14.2 76 1012.2 8.3 SW 13.0 0.0 0.0
14:38 18.5 14.2 76 1012.3 8.3 SW 12.1 0.0 0.0
14:39 18.5 14.0 75 1012.3 8.3 W 12.1 0.0 0.0
14:40 18.5 14.0 75 1012.2 13.0 W 13.0 0.0 0.0
14:41 18.5 14.0 75 1012.2 11.4 SW 13.0 0.0 0.0
14:42 18.4 13.9 75 1012.4 10.7 W 13.0 0.0 0.0
14:43 18.4 13.9 75 1012.3 10.7 W 13.0 0.0 0.0
14:44 18.4 13.9 75 1012.2 6.9 SW 13.0 0.0 0.0
14:45 18.4 14.1 76 1012.2 6.0 W 13.0 0.0 0.0
14:46 18.3 14.0 76 1012.5 10.7 SW 13.6 0.0 0.0
14:47 18.3 14.0 76 1012.3 6.0 NW 13.6 0.0 0.0
14:48 18.2 14.1 77 1012.4 9.2 SW 13.6 0.0 0.0
14:49 18.2 14.1 77 1012.4 9.2 W 13.6 0.0 0.0
14:51 18.1 14.0 77 1012.4 6.0 W 13.6 0.0 0.0
14:52 18.1 14.0 77 1012.5 6.9 W 13.6 0.0 0.0
14:53 18.1 14.2 78 1012.3 6.0 SW 13.6 0.0 0.0
14:54 18.1 14.2 78 1012.2 6.0 W 13.6 0.0 0.0
14:55 18.0 14.1 78 1012.3 4.5 NW 13.6 0.0 0.0
14:56 18.0 14.3 79 1012.3 7.6 NW 11.4 0.0 0.0
14:57 18.0 14.3 79 1012.3 7.6 SE 11.4 0.0 0.0
14:58 18.0 14.3 79 1012.3 6.0 WNW 11.4 0.0 0.0
14:59 18.0 14.3 79 1012.4 5.4 SW 11.4 0.0 0.0
15:00 18.0 14.3 79 1012.3 7.6 W 11.4 0.0 0.0
15:01 18.0 14.3 79 1012.2 7.6 W 7.6 0.0 0.0
15:02 18.0 14.3 79 1012.1 7.6 W 7.6 0.0 0.0
15:03 17.9 14.2 79 1012.3 9.2 W 9.2 0.0 0.0
15:04 17.9 14.2 79 1012.2 10.7 N 10.7 0.0 0.0
15:05 17.9 14.2 79 1012.4 7.6 W 10.7 0.0 0.0
15:06 17.9 14.2 79 1012.4 8.3 SW 10.7 0.0 0.0
15:07 17.9 14.2 79 1012.1 6.9 SW 10.7 0.0 0.0
15:10 17.8 14.1 79 1012.5 6.0 SW 10.7 0.0 0.0
15:11 17.8 14.1 79 1012.2 5.4 W 10.7 0.0 0.0
15:12 17.8 14.1 79 1012.4 8.3 SW 10.7 0.0 0.0
15:13 17.8 14.1 79 1012.2 8.3 W 10.7 0.0 0.0
15:14 17.8 14.1 79 1012.2 5.4 W 8.3 0.0 0.0
15:15 17.8 14.1 79 1012.4 6.9 W 8.3 0.0 0.0
15:16 17.8 14.1 79 1012.2 6.0 WNW 8.3 0.0 0.0
15:17 17.8 14.1 79 1012.4 6.0 SW 8.3 0.0 0.0
15:18 17.8 14.3 80 1012.1 6.9 NW 8.3 0.0 0.0
15:19 17.8 14.3 80 1012.2 9.2 SW 9.2 0.0 0.0
15:20 17.8 14.3 80 1012.4 9.2 W 9.2 0.0 0.0
15:21 17.8 14.3 80 1012.1 7.6 NW 9.2 0.0 0.0
15:22 17.8 14.1 79 1012.4 7.6 SW 9.2 0.0 0.0
15:23 17.8 14.1 79 1012.1 7.6 NW 9.2 0.0 0.0
15:24 17.7 14.0 79 1012.4 6.0 NW 9.2 0.0 0.0
15:25 17.7 14.0 79 1012.4 9.2 W 9.2 0.0 0.0
15:26 17.7 14.0 79 1012.0 7.6 W 9.2 0.0 0.0
15:27 17.7 14.0 79 1012.5 7.6 W 9.2 0.0 0.0
15:28 17.7 14.0 79 1012.2 7.6 NW 9.2 0.0 0.0
15:29 17.7 14.0 79 1012.5 8.3 NW 9.2 0.0 0.0
15:30 17.7 14.2 80 1012.3 7.6 W 9.2 0.0 0.0
15:31 17.8 14.3 80 1012.4 8.3 W 9.2 0.0 0.0
15:32 17.9 14.6 81 1012.0 7.6 SW 9.2 0.0 0.0
15:33 18.0 14.7 81 1012.2 11.4 W 11.4 0.0 0.0
15:34 18.1 14.8 81 1012.2 12.1 SW 12.1 0.0 0.0
15:35 18.1 14.6 80 1012.3 8.3 W 12.1 0.0 0.0
15:37 18.2 14.7 80 1012.3 9.8 SW 12.1 0.0 0.0
15:38 18.2 14.7 80 1012.2 9.2 SW 12.1 0.0 0.0
15:39 18.2 14.7 80 1012.0 9.8 W 12.1 0.0 0.0
15:40 18.2 14.5 79 1012.1 6.9 S 12.1 0.0 0.0
15:41 18.1 14.4 79 1012.2 6.9 W 12.1 0.0 0.0
15:42 18.1 14.4 79 1012.1 4.5 SW 12.1 0.0 0.0
15:43 18.1 14.4 79 1012.2 9.8 SW 12.1 0.0 0.0
15:44 18.1 14.4 79 1012.1 6.0 W 12.1 0.0 0.0
15:45 18.1 14.4 79 1012.2 10.7 NW 12.1 0.0 0.0
15:46 18.0 14.3 79 1012.0 9.2 SW 10.7 0.0 0.0
15:47 18.0 14.3 79 1012.0 10.7 SW 10.7 0.0 0.0
15:48 18.0 14.3 79 1012.3 8.3 W 10.7 0.0 0.0
15:49 18.0 14.3 79 1012.3 8.3 W 10.7 0.0 0.0
15:50 18.0 14.5 80 1012.1 7.6 SW 10.7 0.0 0.0
15:51 18.0 14.7 81 1012.0 6.0 SW 10.7 0.0 0.0
15:52 18.1 14.8 81 1012.1 7.6 SW 10.7 0.0 0.0
15:53 18.2 15.1 82 1012.2 6.9 NW 10.7 0.0 0.0
15:54 18.3 15.2 82 1012.1 9.2 SW 10.7 0.0 0.0
15:55 18.5 15.4 82 1012.1 10.7 SW 10.7 0.0 0.0
15:57 18.6 15.5 82 1012.1 15.2 SW 15.2 0.0 0.0
15:58 18.6 15.5 82 1012.0 15.2 S 15.2 0.0 0.0
15:59 18.6 15.3 81 1012.3 9.2 SW 15.2 0.0 0.0
16:00 18.6 15.3 81 1011.9 9.2 SW 15.2 0.0 0.0
16:01 18.6 15.3 81 1012.1 9.2 SW 15.2 0.0 0.0
16:02 18.6 15.3 81 1012.1 9.2 SW 15.2 0.0 0.0
16:03 18.6 15.3 81 1011.9 9.2 SW 15.2 0.0 0.0
16:04 18.6 15.3 81 1012.0 9.2 SW 15.2 0.0 0.0
16:05 18.6 15.3 81 1012.1 9.2 SW 15.2 0.0 0.0
16:06 19.0 15.5 80 1012.0 9.8 SW 15.2 0.0 0.0
16:07 19.0 15.5 80 1012.1 9.8 W 15.2 0.0 0.0
16:08 19.1 15.6 80 1011.9 10.7 W 15.2 0.0 0.0
16:09 19.1 15.6 80 1012.0 10.7 W 12.1 0.0 0.0
16:10 19.3 15.8 80 1012.0 11.4 SW 11.4 0.0 0.0
16:11 19.4 15.7 79 1012.2 12.1 SW 12.1 0.0 0.0
16:12 19.4 15.7 79 1012.0 12.1 SW 12.1 0.0 0.0
16:13 19.5 15.8 79 1012.0 11.4 SW 12.1 0.0 0.0
16:14 19.5 15.8 79 1011.8 10.7 SW 12.1 0.0 0.0
16:15 19.5 15.8 79 1012.2 10.7 S 12.1 0.0 0.0
16:17 19.5 15.8 79 1012.2 12.1 W 12.1 0.0 0.0
16:18 19.5 15.6 78 1011.9 9.8 SW 12.1 0.0 0.0
16:19 19.4 15.5 78 1012.4 11.4 W 12.1 0.0 0.0
16:20 19.3 15.2 77 1012.1 9.8 S 12.1 0.0 0.0
16:21 19.3 15.2 77 1012.1 9.2 W 12.1 0.0 0.0
16:22 19.2 15.1 77 1012.0 9.8 SSW 12.1 0.0 0.0
16:23 19.2 15.1 77 1012.2 13.0 W 13.0 0.0 0.0
16:24 19.1 15.0 77 1012.1 13.0 W 13.0 0.0 0.0
16:25 19.1 15.0 77 1012.2 10.7 SW 13.0 0.0 0.0
16:26 19.0 14.9 77 1012.1 9.8 SW 13.0 0.0 0.0
16:27 19.0 14.9 77 1012.2 9.8 SW 13.0 0.0 0.0
16:28 18.9 15.0 78 1012.3 6.9 SW 13.0 0.0 0.0
16:29 18.9 15.0 78 1012.3 8.3 W 13.0 0.0 0.0
16:30 18.8 14.9 78 1012.0 7.6 SW 13.0 0.0 0.0
16:31 18.8 15.1 79 1012.1 6.9 W 13.0 0.0 0.0
16:32 18.7 15.0 79 1012.4 8.3 SW 13.0 0.0 0.0
16:33 18.7 15.0 79 1012.2 8.3 SW 13.0 0.0 0.0
16:34 18.6 14.9 79 1012.0 8.3 SW 10.7 0.0 0.0
16:36 18.5 14.8 79 1012.1 8.3 SW 9.8 0.0 0.0
16:37 18.4 14.7 79 1012.0 6.9 SW 9.8 0.0 0.0
16:38 18.3 14.6 79 1012.2 7.6 W 9.8 0.0 0.0
16:39 18.2 14.5 79 1012.1 9.2 SW 9.8 0.0 0.0
16:40 18.2 14.5 79 1012.0 8.3 SW 9.8 0.0 0.0
16:41 18.1 14.4 79 1012.1 8.3 SW 9.8 0.0 0.0
16:42 18.0 14.3 79 1012.5 7.6 W 9.8 0.0 0.0
16:43 18.0 14.3 79 1012.1 9.2 NW 9.8 0.0 0.0
16:44 18.0 14.3 79 1012.2 9.2 NW 9.8 0.0 0.0
16:45 17.9 14.2 79 1012.2 7.6 W 9.8 0.0 0.0
16:46 17.8 14.1 79 1012.2 6.9 SW 9.2 0.0 0.0
16:47 17.7 14.0 79 1012.2 7.6 NW 9.2 0.0 0.0
16:48 17.7 14.2 80 1012.1 8.3 W 9.2 0.0 0.0
16:49 17.6 14.1 80 1012.0 8.3 SW 9.2 0.0 0.0
16:50 17.5 14.0 80 1012.2 8.3 SSW 9.2 0.0 0.0
16:51 17.3 14.4 83 1012.2 9.2 W 9.2 0.0 0.0
16:52 17.3 14.4 83 1012.0 6.9 SW 9.2 0.0 0.0
16:53 17.2 14.3 83 1012.2 6.0 NW 9.2 0.0 0.0
16:55 17.1 14.4 84 1012.2 2.2 NW 9.2 0.8 0.1
16:56 17.0 14.3 84 1012.1 3.8 SW 9.2 1.5 0.1
16:57 17.0 14.3 84 1012.2 3.8 W 9.2 1.5 0.1
16:58 17.0 14.3 84 1012.1 3.8 W 9.2 1.5 0.1
16:59 16.9 14.4 85 1012.0 6.9 SW 9.2 1.5 0.1
17:00 16.9 14.4 85 1012.0 6.9 SW 9.2 0.8 0.1
17:01 16.9 14.4 85 1012.1 6.9 SW 9.2 0.0 0.1
17:02 16.9 14.4 85 1012.1 6.9 SW 9.2 0.0 0.1
17:03 16.7 14.4 86 1012.3 6.9 SW 6.9 0.0 0.2
17:04 16.7 14.4 86 1012.1 7.6 S 7.6 0.8 0.2
17:05 16.7 14.5 87 1012.5 8.3 SE 8.3 0.8 0.2
17:06 16.6 14.6 88 1011.9 6.9 S 9.2 0.8 0.2
17:07 16.5 14.5 88 1012.1 6.0 SW 9.2 0.8 0.2
17:08 16.5 14.5 88 1012.1 4.5 SW 9.2 0.8 0.2
17:09 16.5 14.7 89 1012.2 4.5 W 9.2 0.0 0.2
17:10 16.5 14.7 89 1012.1 6.0 SW 9.2 0.0 0.2
17:11 16.5 14.7 89 1012.0 8.3 SW 9.2 0.0 0.2
17:12 16.4 14.6 89 1011.8 8.3 SW 9.2 0.0 0.2
17:14 16.4 14.8 90 1011.9 6.9 SW 9.2 0.0 0.2
17:15 16.4 14.8 90 1012.0 7.6 SW 9.2 0.0 0.2
17:16 16.4 14.8 90 1011.9 6.0 SW 8.3 0.0 0.2
17:17 16.4 14.8 90 1012.1 6.9 W 8.3 0.0 0.2
17:18 16.4 14.8 90 1012.0 7.6 SW 8.3 0.0 0.2
17:19 16.5 14.9 90 1011.9 7.6 SW 8.3 0.0 0.2
17:20 16.5 14.9 90 1011.9 7.6 SW 8.3 0.0 0.2
17:21 16.5 14.9 90 1012.0 9.2 W 9.2 0.0 0.2
17:22 16.5 14.9 90 1012.1 9.8 NW 9.8 0.0 0.2
17:23 16.5 14.9 90 1011.8 6.9 W 9.8 0.0 0.2
17:25 16.6 15.0 90 1012.1 6.9 W 9.8 0.0 0.2
17:26 16.6 15.0 90 1012.0 8.3 SW 9.8 0.0 0.2
17:27 16.7 15.1 90 1012.0 7.6 SW 9.8 0.0 0.2
17:28 16.7 15.1 90 1011.9 6.0 SW 9.8 0.0 0.2
17:29 16.7 15.1 90 1012.0 6.9 SW 9.8 0.0 0.2
17:30 16.8 15.2 90 1011.9 5.4 SW 9.8 0.0 0.2
17:31 16.8 15.2 90 1011.7 5.4 SW 9.8 0.0 0.2
17:32 16.8 15.2 90 1012.0 9.2 SW 9.8 0.0 0.2
17:33 16.8 15.2 90 1012.0 6.9 SW 9.8 0.0 0.2
17:34 16.8 15.2 90 1011.9 8.3 SW 9.2 0.0 0.2
17:35 16.8 15.2 90 1011.9 8.3 SW 9.2 0.0 0.2
17:36 16.8 15.2 90 1012.0 5.4 SW 9.2 0.0 0.2
17:37 16.8 15.2 90 1011.8 6.9 SW 9.2 0.0 0.2
17:38 16.8 15.2 90 1011.9 6.9 W 9.2 0.0 0.2
17:39 16.8 15.2 90 1011.9 8.3 W 9.2 0.0 0.2
17:40 16.8 15.2 90 1012.0 6.9 WSW 9.2 0.0 0.2
17:41 16.8 15.2 90 1012.1 8.3 WSW 9.2 0.0 0.2
17:42 16.8 15.2 90 1012.1 8.3 W 8.3 0.0 0.2
17:44 16.7 15.1 90 1012.0 7.6 W 8.3 0.0 0.2
17:45 16.7 15.1 90 1011.7 6.9 SW 8.3 0.0 0.2
17:46 16.7 15.1 90 1012.0 6.9 SW 8.3 0.0 0.2
17:47 16.7 15.1 90 1011.9 6.9 SW 8.3 0.0 0.2
17:48 16.7 15.1 90 1011.7 5.4 W 8.3 0.0 0.2
17:49 16.7 15.1 90 1011.7 5.4 W 8.3 0.0 0.2
17:50 16.6 15.0 90 1011.8 3.8 W 8.3 0.0 0.2
17:51 16.6 15.0 90 1012.0 3.8 NW 8.3 0.0 0.2
17:52 16.6 15.0 90 1011.9 6.0 SW 8.3 0.0 0.2
17:53 16.6 15.0 90 1012.0 6.0 NW 8.3 0.0 0.2
17:54 16.6 15.0 90 1011.9 7.6 W 8.3 0.0 0.2
17:55 16.6 15.0 90 1011.9 6.9 W 7.6 0.0 0.2
17:56 16.6 15.0 90 1012.0 8.3 W 8.3 0.0 0.2
17:57 16.6 15.0 90 1011.7 6.9 W 8.3 0.0 0.2
17:58 16.6 15.0 90 1012.0 8.3 SW 8.3 0.0 0.2
17:59 16.5 14.7 89 1012.0 6.0 W 9.8 0.0 0.2
18:00 16.5 14.7 89 1012.0 6.0 W 9.8 0.0 0.2
18:01 16.5 14.7 89 1012.0 6.0 W 9.8 0.0 0.2
18:03 16.5 14.7 89 1011.8 6.0 W 9.8 0.0 0.2
18:04 16.5 14.7 89 1011.8 6.0 W 9.8 0.0 0.2
18:05 16.5 14.7 89 1011.7 6.0 W 9.8 0.0 0.2
18:06 16.5 14.7 89 1011.8 6.0 W 9.8 0.0 0.2
18:07 16.5 14.7 89 1011.8 6.0 W 9.8 0.0 0.2
18:08 16.5 14.7 89 1011.8 6.0 W 9.8 0.0 0.2
18:09 16.5 14.7 89 1011.8 6.0 W 9.8 0.0 0.2
18:10 16.4 14.6 89 1011.9 5.4 SW 6.0 0.0 0.2
18:11 16.4 14.8 90 1011.8 5.4 W 6.0 0.0 0.2
18:12 16.4 14.8 90 1011.7 6.9 W 6.9 0.0 0.2
18:13 16.3 14.7 90 1011.9 7.6 W 7.6 0.0 0.2
18:14 16.3 14.7 90 1011.9 3.8 SW 7.6 0.0 0.2
18:15 16.3 14.7 90 1011.7 4.5 SW 7.6 0.0 0.2
18:16 16.3 14.7 90 1011.6 6.9 W 7.6 0.0 0.2
18:17 16.3 14.7 90 1011.7 6.9 NW 7.6 0.0 0.2
18:18 16.3 14.8 91 1011.6 7.6 SW 7.6 0.0 0.2
18:19 16.2 14.7 91 1012.0 7.6 SW 7.6 0.0 0.2
18:20 16.2 14.7 91 1011.8 7.6 W 7.6 0.0 0.2
18:22 16.2 14.7 91 1011.7 8.3 W 8.3 0.0 0.2
18:23 16.2 14.7 91 1011.9 9.8 SW 9.8 0.0 0.2
18:24 16.2 14.7 91 1011.8 5.4 SW 9.8 0.0 0.2
18:25 16.2 14.7 91 1011.8 5.4 SW 9.8 0.0 0.2
18:26 16.2 14.7 91 1011.8 5.4 W 9.8 0.0 0.2
18:27 16.2 14.7 91 1011.8 7.6 SW 9.8 0.0 0.2
18:28 16.2 14.7 91 1011.6 8.3 SW 9.8 0.0 0.2
18:29 16.2 14.7 91 1011.8 8.3 SW 9.8 0.0 0.2
18:30 16.2 14.7 91 1011.8 6.9 W 9.8 0.0 0.2
18:31 16.2 14.7 91 1011.6 6.0 SW 9.8 0.0 0.2
18:32 16.2 14.7 91 1011.6 6.0 S 9.8 0.0 0.2
18:33 16.2 14.7 91 1011.7 6.9 SW 9.8 0.0 0.2
18:34 16.2 14.7 91 1011.7 4.5 SW 9.8 0.0 0.2
18:35 16.1 14.6 91 1011.8 5.4 SW 8.3 0.0 0.2
18:36 16.1 14.6 91 1011.8 5.4 SW 8.3 0.0 0.2
18:37 16.1 14.8 92 1012.0 4.5 SW 8.3 0.0 0.2
18:38 16.2 14.9 92 1011.6 3.8 SW 8.3 0.0 0.2
18:39 16.2 14.9 92 1011.9 4.5 SW 8.3 0.0 0.2
18:41 16.2 14.9 92 1011.8 6.0 W 6.9 0.0 0.2
18:42 16.2 14.9 92 1011.9 5.4 SW 6.9 0.0 0.2
18:43 16.2 14.9 92 1011.9 6.9 SW 6.9 0.0 0.2
18:44 16.1 14.8 92 1011.7 6.9 SW 6.9 0.0 0.2
18:45 16.1 14.8 92 1011.7 6.9 W 6.9 0.0 0.2
18:46 16.1 15.0 93 1011.9 6.0 W 6.9 0.0 0.2
18:47 16.1 15.0 93 1011.7 6.9 S 6.9 0.0 0.2
18:48 16.1 15.0 93 1011.9 5.4 SW 6.9 0.0 0.2
18:49 16.1 15.0 93 1011.9 3.8 SW 6.9 0.0 0.2
18:50 16.2 15.1 93 1011.9 9.8 SW 9.8 0.0 0.2
18:51 16.3 15.2 93 1011.8 6.0 S 9.8 0.0 0.2
18:52 16.3 15.2 93 1011.8 5.4 SW 9.8 0.0 0.2
18:53 16.4 15.4 94 1011.8 5.4 SW 9.8 0.0 0.2
18:54 16.6 15.6 94 1011.7 6.0 SW 9.8 0.0 0.2
18:55 16.7 15.7 94 1011.8 6.0 SW 9.8 0.0 0.2
18:56 16.9 16.1 95 1011.8 7.6 SW 9.8 0.0 0.2
18:57 17.0 16.2 95 1011.9 7.6 SW 9.8 0.0 0.2
18:58 17.0 16.2 95 1011.9 5.4 SW 9.8 0.0 0.2
19:00 17.0 16.2 95 1011.8 4.5 W 9.8 0.0 0.2
19:01 17.0 16.2 95 1011.7 4.5 W 7.6 0.0 0.2
19:02 17.0 16.2 95 1011.8 4.5 W 7.6 0.0 0.2
19:03 17.0 16.2 95 1011.6 4.5 W 7.6 0.0 0.2
19:04 17.0 16.2 95 1011.7 4.5 W 7.6 0.0 0.2
19:05 16.8 15.8 94 1011.7 6.9 SW 7.6 0.0 0.2
19:06 16.8 15.7 93 1012.0 6.0 SW 7.6 0.0 0.2
19:07 16.7 15.6 93 1012.0 7.6 W 7.6 0.0 0.2
19:08 16.7 15.6 93 1011.9 7.6 SW 7.6 0.0 0.2
19:09 16.7 15.4 92 1011.7 6.9 W 7.6 0.0 0.2
19:10 16.6 15.3 92 1011.9 7.6 SW 9.2 0.0 0.2
19:11 16.6 15.3 92 1011.8 6.9 SW 9.2 0.0 0.2
19:12 16.6 15.1 91 1011.8 6.0 WSW 9.2 0.0 0.2
19:13 16.6 15.1 91 1011.9 5.4 SW 9.2 0.0 0.2
19:14 16.5 15.0 91 1012.0 6.9 SW 9.2 0.0 0.2
19:15 16.5 15.0 91 1011.8 6.9 SW 9.2 0.0 0.2
19:16 16.5 15.0 91 1011.7 8.3 SW 10.7 0.0 0.2
19:17 16.5 15.0 91 1011.7 9.8 SW 10.7 0.0 0.2
19:19 16.5 15.0 91 1011.9 7.6 SW 10.7 0.0 0.2
19:20 16.5 15.0 91 1011.7 6.9 W 10.7 0.0 0.2
19:21 16.5 15.0 91 1011.8 7.6 W 10.7 0.0 0.2
19:22 16.5 15.0 91 1012.0 9.2 SW 10.7 0.0 0.2
19:24 16.5 15.0 91 1011.8 9.8 SW 10.7 0.0 0.2
19:25 16.5 15.0 91 1011.7 8.3 SW 10.7 0.0 0.2
19:26 16.5 15.0 91 1011.8 8.3 SW 10.7 0.0 0.2
19:27 16.5 15.0 91 1011.9 6.9 SW 9.8 0.0 0.2
19:28 16.6 15.1 91 1011.8 9.2 SW 9.8 0.0 0.2
19:29 16.7 15.2 91 1011.8 7.6 SW 9.8 0.0 0.2
19:30 16.8 15.3 91 1011.9 6.0 SW 9.8 0.0 0.2
19:32 17.0 15.5 91 1011.8 7.6 SW 9.8 0.0 0.2
19:33 17.0 15.5 91 1011.8 6.0 W 9.8 0.0 0.2
19:34 17.1 15.6 91 1011.9 6.0 NW 9.2 0.0 0.2
19:35 17.1 15.5 90 1011.8 9.8 W 9.8 0.0 0.2
19:36 17.1 15.5 90 1011.8 8.3 SW 9.8 0.0 0.2
19:37 17.1 15.5 90 1011.7 6.0 SW 9.8 0.0 0.2
19:38 17.1 15.5 90 1011.7 6.0 SW 9.8 0.0 0.2
19:39 17.0 15.2 89 1011.8 6.0 NW 9.8 0.0 0.2
19:40 16.9 15.1 89 1011.8 6.0 W 9.8 0.0 0.2
19:41 16.9 15.1 89 1011.6 6.0 W 9.8 0.0 0.2
19:42 16.7 14.9 89 1011.8 6.0 NW 9.8 0.0 0.2
19:43 16.7 14.9 89 1011.9 6.0 W 9.8 0.0 0.2
19:44 16.6 14.6 88 1011.7 6.0 W 9.8 0.0 0.2
19:45 16.6 14.6 88 1011.9 6.0 SW 9.8 0.0 0.2
19:46 16.5 14.5 88 1011.9 5.4 SW 9.8 0.0 0.2
19:47 16.3 14.3 88 1011.8 4.5 W 8.3 0.0 0.2
19:48 16.3 14.3 88 1011.9 4.5 W 8.3 0.0 0.2
19:49 16.3 14.3 88 1012.0 4.5 W 6.0 0.0 0.2
19:51 16.2 14.4 89 1012.1 3.8 SW 6.0 0.0 0.2
19:52 16.1 14.3 89 1012.1 4.5 SW 6.0 0.0 0.2
19:53 16.1 14.3 89 1011.9 4.5 SW 6.0 0.0 0.2
19:54 16.1 14.3 89 1011.8 3.8 W 6.0 0.0 0.2
19:55 16.0 14.2 89 1011.9 4.5 W 6.0 0.0 0.2
19:56 16.0 14.2 89 1011.9 4.5 W 6.0 0.0 0.2
19:57 16.0 14.2 89 1011.8 5.4 SW 6.0 0.0 0.2
19:58 16.0 14.2 89 1012.0 6.9 SW 6.9 0.0 0.2
19:59 16.0 14.4 90 1011.9 6.9 SW 6.9 0.0 0.2
20:00 16.0 14.4 90 1011.8 7.6 SW 7.6 0.0 0.2
20:01 16.0 14.4 90 1011.9 7.6 SW 7.6 0.0 0.2
20:02 16.0 14.4 90 1011.8 7.6 SW 7.6 0.0 0.2
20:03 16.0 14.4 90 1011.9 7.6 SW 7.6 0.0 0.2
20:04 16.0 14.4 90 1011.8 7.6 SW 7.6 0.0 0.2
20:05 16.0 14.4 90 1011.8 7.6 SW 7.6 0.0 0.2
20:06 16.0 14.4 90 1011.8 7.6 SW 7.6 0.0 0.2
20:07 16.0 14.4 90 1011.7 7.6 SW 7.6 0.0 0.2
20:08 15.7 14.2 91 1011.9 6.9 SW 7.6 0.0 0.2
20:10 15.7 14.2 91 1011.7 5.4 W 7.6 0.0 0.2
20:11 15.7 14.4 92 1011.8 6.0 SW 7.6 0.0 0.2
20:12 15.7 14.4 92 1011.9 7.6 SW 7.6 0.0 0.2
20:13 15.7 14.4 92 1011.8 6.0 SW 7.6 0.0 0.2
20:14 15.7 14.4 92 1011.9 5.4 SW 7.6 0.0 0.2
20:15 15.6 14.3 92 1011.7 7.6 SW 7.6 0.0 0.2
20:16 15.6 14.3 92 1011.7 7.6 SW 7.6 0.0 0.2
20:17 15.6 14.3 92 1011.9 6.0 W 7.6 0.0 0.2
20:18 15.6 14.5 93 1011.9 7.6 SW 7.6 0.0 0.2
20:19 15.6 14.5 93 1011.9 6.0 SW 7.6 0.0 0.2
20:20 15.6 14.5 93 1011.9 8.3 SW 8.3 0.0 0.2
20:21 15.6 14.5 93 1011.8 7.6 W 8.3 0.0 0.2
20:22 15.6 14.5 93 1011.8 6.0 SW 8.3 0.0 0.2
20:23 15.5 14.4 93 1011.9 4.5 NW 8.3 0.0 0.2
20:24 15.5 14.4 93 1011.9 3.8 SW 8.3 0.0 0.2
20:25 15.5 14.4 93 1011.8 6.0 S 8.3 0.0 0.2
20:26 15.5 14.4 93 1011.7 5.4 W 8.3 0.0 0.2
20:27 15.5 14.4 93 1011.9 7.6 SW 8.3 0.0 0.2
20:29 15.5 14.4 93 1012.0 6.0 W 8.3 0.0 0.2
20:30 15.5 14.4 93 1011.8 6.9 W 7.6 0.0 0.2
20:31 15.5 14.4 93 1011.8 6.0 SW 7.6 0.0 0.2
20:32 15.5 14.4 93 1011.9 6.0 W 7.6 0.0 0.2
20:33 15.5 14.4 93 1011.8 7.6 NW 7.6 0.0 0.2
20:34 15.4 14.3 93 1011.9 6.0 W 7.6 0.0 0.2
20:35 15.4 14.3 93 1012.0 6.0 W 7.6 0.0 0.2
20:36 15.4 14.3 93 1011.9 3.8 SW 7.6 0.0 0.2
20:37 15.4 14.3 93 1012.0 5.4 NW 7.6 0.0 0.2
20:38 15.4 14.3 93 1011.9 5.4 W 7.6 0.0 0.2
20:39 15.4 14.1 92 1011.8 6.9 W 7.6 0.0 0.2
20:40 15.3 14.0 92 1011.8 3.8 SW 7.6 0.0 0.2
20:41 15.3 14.0 92 1011.7 3.8 W 7.6 0.0 0.2
20:42 15.3 14.0 92 1011.9 5.4 W 7.6 0.0 0.2
20:43 15.3 14.0 92 1011.8 3.8 W 7.6 0.0 0.2
20:44 15.2 13.9 92 1011.9 5.4 SW 6.9 0.0 0.2
20:45 15.2 13.9 92 1011.8 5.4 SW 6.9 0.0 0.2
20:46 15.2 13.9 92 1012.0 5.4 SW 6.9 0.0 0.2
20:48 15.2 13.9 92 1011.9 4.5 SW 6.9 0.0 0.2
20:49 15.1 13.8 92 1011.8 3.8 W 5.4 0.0 0.2
20:50 15.1 13.8 92 1011.9 3.1 SW 5.4 0.0 0.2
20:51 15.1 13.8 92 1011.9 3.8 W 5.4 0.0 0.2
20:52 15.1 13.8 92 1012.1 3.8 W 5.4 0.0 0.2
20:53 15.1 13.8 92 1012.1 3.8 W 5.4 0.0 0.2
20:54 15.0 13.7 92 1012.0 3.8 NW 5.4 0.0 0.2
20:55 15.0 13.7 92 1011.9 3.8 SW 5.4 0.0 0.2
20:56 15.0 13.7 92 1012.1 4.5 SW 5.4 0.0 0.2
20:57 15.0 13.7 92 1012.0 4.5 W 4.5 0.0 0.2
20:58 15.0 13.7 92 1011.9 3.1 W 4.5 0.0 0.2
20:59 14.9 13.6 92 1011.8 3.8 W 4.5 0.0 0.2
21:00 14.9 13.6 92 1012.1 3.8 W 4.5 0.0 0.2
21:01 14.9 13.6 92 1011.9 3.8 W 4.5 0.0 0.2
21:02 14.9 13.6 92 1012.1 3.8 W 4.5 0.0 0.2
21:03 14.9 13.6 92 1011.9 3.8 W 4.5 0.0 0.2
21:04 14.9 13.6 92 1011.9 3.8 W 4.5 0.0 0.2
21:05 14.9 13.6 92 1012.1 3.8 W 4.5 0.0 0.2
21:07 14.7 13.4 92 1012.0 5.4 W 5.4 0.0 0.2
21:08 14.7 13.4 92 1011.9 3.8 W 5.4 0.0 0.2
21:09 14.7 13.4 92 1012.0 3.8 SW 5.4 0.0 0.2
21:10 14.7 13.4 92 1011.9 3.1 W 5.4 0.0 0.2
21:11 14.7 13.4 92 1011.9 3.8 SW 5.4 0.0 0.2
21:12 14.7 13.4 92 1011.9 3.8 SW 5.4 0.0 0.2
21:13 14.6 13.3 92 1012.2 4.5 SW 5.4 0.0 0.2
21:14 14.6 13.5 93 1012.0 4.5 W 5.4 0.0 0.2
21:15 14.6 13.5 93 1012.1 3.8 W 5.4 0.0 0.2
21:16 14.6 13.5 93 1011.9 4.5 W 5.4 0.0 0.2
21:17 14.6 13.5 93 1012.0 3.8 W 5.4 0.0 0.2
21:18 14.5 13.4 93 1012.1 3.8 SW 5.4 0.0 0.2
21:19 14.5 13.4 93 1012.2 3.8 W 4.5 0.0 0.2
21:20 14.5 13.4 93 1011.9 3.1 W 4.5 0.0 0.2
21:21 14.5 13.4 93 1012.0 3.1 SW 4.5 0.0 0.2
21:22 14.4 13.3 93 1012.3 2.2 W 4.5 0.0 0.2
21:23 14.4 13.3 93 1012.0 3.8 W 4.5 0.0 0.2
21:24 14.4 13.3 93 1012.0 3.1 W 4.5 0.0 0.2
21:26 14.4 13.3 93 1012.3 2.2 W 4.5 0.0 0.2
21:27 14.4 13.3 93 1012.0 4.5 SW 4.5 0.0 0.2
21:28 14.4 13.3 93 1012.2 1.6 W 4.5 0.0 0.2
21:29 14.4 13.3 93 1012.1 2.2 SW 4.5 0.0 0.2
21:30 14.4 13.3 93 1012.0 3.1 SW 4.5 0.0 0.2
21:32 14.4 13.5 94 1012.0 2.2 NW 4.5 0.0 0.2
21:33 14.4 13.5 94 1012.1 1.6 SW 4.5 0.0 0.2
21:34 14.4 13.5 94 1012.2 1.6 W 4.5 0.0 0.2
21:35 14.4 13.5 94 1012.4 3.1 W 4.5 0.0 0.2
21:36 14.4 13.5 94 1012.3 2.2 SW 4.5 0.0 0.2
21:37 14.4 13.5 94 1012.3 2.2 W 4.5 0.0 0.2
21:38 14.4 13.5 94 1012.3 2.2 W 4.5 0.0 0.2
21:39 14.4 13.5 94 1012.1 2.2 W 3.1 0.0 0.2
21:40 14.4 13.5 94 1012.3 2.2 W 3.1 0.0 0.2
21:41 14.4 13.5 94 1012.3 2.2 W 3.1 0.0 0.2
21:42 14.3 13.4 94 1012.2 1.6 W 3.1 0.0 0.2
21:43 14.3 13.4 94 1012.2 2.2 SW 3.1 0.0 0.2
21:44 14.3 13.4 94 1012.0 1.6 W 3.1 0.0 0.2
21:45 14.3 13.5 95 1012.2 1.6 W 3.1 0.0 0.2
21:46 14.3 13.5 95 1012.3 1.6 W 3.1 0.0 0.2
21:47 14.3 13.5 95 1012.4 1.6 W 2.2 0.0 0.2
21:48 14.3 13.5 95 1012.4 2.2 SW 2.2 0.0 0.2
21:49 14.3 13.5 95 1012.3 1.6 SW 2.2 0.0 0.2
21:51 14.3 13.5 95 1012.1 2.2 SW 2.2 0.0 0.2
21:52 14.3 13.5 95 1012.3 2.2 SW 2.2 0.0 0.2
21:53 14.4 13.6 95 1012.3 2.2 SW 2.2 0.0 0.2
21:54 14.4 13.6 95 1012.4 1.6 SW 2.2 0.0 0.2
21:55 14.4 13.6 95 1012.3 2.2 SW 2.2 0.0 0.2
21:56 14.4 13.6 95 1012.3 2.2 SW 2.2 0.0 0.2
21:57 14.4 13.6 95 1012.3 2.2 SW 2.2 0.0 0.2
21:58 14.4 13.8 96 1012.5 1.6 SW 2.2 0.0 0.2
21:59 14.4 13.8 96 1012.4 2.2 W 2.2 0.0 0.2
22:00 14.4 13.8 96 1012.3 1.6 SW 2.2 0.0 0.2
22:01 14.4 13.8 96 1012.1 1.6 SW 2.2 0.0 0.2
22:02 14.4 13.8 96 1012.3 1.6 SW 2.2 0.0 0.2
22:03 14.4 13.8 96 1012.3 2.2 NW 2.2 0.0 0.2
22:04 14.4 13.8 96 1012.2 2.2 W 2.2 0.0 0.2
22:05 14.4 13.8 96 1012.3 2.2 SW 2.2 0.0 0.2
22:06 14.4 13.8 96 1012.2 1.6 SW 2.2 0.0 0.2
22:07 14.4 13.8 96 1012.2 1.6 SW 2.2 0.0 0.2
22:08 14.4 13.8 96 1012.2 1.6 SW 2.2 0.0 0.2
22:10 14.4 13.8 96 1012.1 2.2 SW 2.2 0.0 0.2
22:11 14.3 13.8 97 1012.1 1.6 SW 2.2 0.0 0.2
22:12 14.3 13.8 97 1012.2 1.6 SW 2.2 0.0 0.2
22:13 14.3 13.8 97 1012.3 1.6 SW 2.2 0.0 0.2
22:14 14.3 13.8 97 1012.3 1.6 SW 2.2 0.0 0.2
22:15 14.3 13.8 97 1012.3 1.6 S 2.2 0.0 0.2
22:16 14.3 13.8 97 1012.2 1.6 SW 2.2 0.0 0.2
22:17 14.3 13.8 97 1012.3 1.6 SW 2.2 0.0 0.2
22:18 14.3 13.8 97 1012.2 1.6 SW 2.2 0.0 0.2
22:19 14.3 13.8 97 1012.1 1.6 SW 2.2 0.0 0.2
22:20 14.3 13.8 97 1012.2 1.6 W 2.2 0.0 0.2
22:21 14.3 13.8 97 1012.2 1.6 W 2.2 0.0 0.2
22:22 14.3 13.8 97 1012.2 1.6 W 1.6 0.0 0.2
22:23 14.2 13.7 97 1012.1 0.7 SW 1.6 0.0 0.2
22:24 14.2 13.7 97 1012.1 0.7 W 1.6 0.0 0.2
22:25 14.2 13.7 97 1012.1 0.7 W 1.6 0.0 0.2
22:26 14.2 13.7 97 1012.2 2.2 SW 2.2 0.0 0.2
22:27 14.2 13.7 97 1012.2 1.6 W 2.2 0.0 0.2
22:29 14.2 13.7 97 1012.2 1.6 SW 2.2 0.0 0.2
22:30 14.2 13.7 97 1012.1 1.6 SW 2.2 0.0 0.2
22:31 14.1 13.6 97 1012.4 1.6 W 2.2 0.0 0.2
22:32 14.1 13.6 97 1012.2 1.6 W 2.2 0.0 0.2
22:33 14.1 13.6 97 1012.0 1.6 W 2.2 0.0 0.2
22:34 14.1 13.6 97 1012.2 1.6 W 2.2 0.0 0.2
22:35 14.1 13.6 97 1012.2 3.1 SW 3.1 0.0 0.2
22:36 14.1 13.6 97 1012.3 3.1 SW 3.1 0.0 0.2
22:37 14.1 13.6 97 1012.2 2.2 SW 3.1 0.0 0.2
22:38 14.1 13.8 98 1012.1 2.2 W 3.1 0.0 0.2
22:39 14.1 13.8 98 1012.2 4.5 W 4.5 0.0 0.2
22:40 14.1 13.8 98 1012.3 4.5 W 4.5 0.0 0.2
22:41 14.1 13.8 98 1012.3 3.1 SW 4.5 0.0 0.2
22:42 14.1 13.8 98 1012.0 4.5 W 4.5 0.0 0.2
22:43 14.1 13.8 98 1012.2 4.5 SW 4.5 0.0 0.2
22:44 14.1 13.8 98 1012.4 3.1 W 4.5 0.0 0.2
22:45 14.1 13.8 98 1012.1 3.1 W 4.5 0.0 0.2
22:46 14.2 13.9 98 1012.3 4.5 SW 4.5 0.0 0.2
22:48 14.2 13.9 98 1012.2 3.1 SW 4.5 0.0 0.2
22:49 14.2 13.9 98 1011.9 3.1 W 4.5 0.0 0.2
22:50 14.2 13.9 98 1012.0 3.1 W 4.5 0.0 0.2
22:51 14.2 13.9 98 1012.0 3.1 W 4.5 0.0 0.2
22:52 14.2 14.1 99 1012.2 3.1 W 4.5 0.0 0.2
22:53 14.2 14.1 99 1012.2 3.1 W 4.5 0.0 0.2
22:54 14.1 14.0 99 1012.2 4.5 SW 5.4 0.0 0.2
22:55 14.1 14.0 99 1012.2 4.5 W 5.4 0.0 0.2
22:56 14.1 14.0 99 1012.1 4.5 W 5.4 0.0 0.2
22:57 14.1 14.0 99 1012.1 3.1 W 5.4 0.0 0.2
22:58 14.1 14.0 99 1011.9 3.8 W 5.4 0.0 0.2
22:59 14.1 14.0 99 1012.1 3.8 SW 5.4 0.0 0.2
23:00 14.1 14.0 99 1012.2 3.8 W 5.4 0.0 0.2
23:01 14.1 14.0 99 1012.0 3.8 W 5.4 0.0 0.2
23:02 14.1 14.0 99 1012.0 3.8 W 5.4 0.0 0.2
23:03 14.1 14.0 99 1012.0 3.8 W 5.4 0.0 0.2
23:04 14.1 14.0 99 1011.9 3.8 W 4.5 0.0 0.2
23:05 14.1 14.0 99 1012.0 3.8 W 4.5 0.0 0.2
23:07 14.0 13.9 99 1012.2 1.6 SW 3.8 0.0 0.2
23:08 14.0 13.9 99 1012.0 1.6 SW 3.8 0.0 0.2
23:09 14.0 13.9 99 1012.0 1.6 SW 3.8 0.0 0.2
23:10 13.9 13.8 99 1012.2 1.6 SW 3.8 0.0 0.2
23:11 13.9 13.8 99 1012.1 2.2 SW 3.8 0.0 0.2
23:12 13.9 13.8 99 1011.9 2.2 SW 3.8 0.0 0.2
23:13 13.9 13.8 99 1011.9 2.2 SW 3.8 0.0 0.2
23:14 13.9 13.8 99 1012.1 1.6 SW 3.8 0.0 0.2
23:15 13.9 13.8 99 1012.0 1.6 SW 3.8 0.0 0.2
23:16 13.9 13.8 99 1012.2 2.2 W 3.8 0.0 0.2
23:17 13.9 13.8 99 1012.2 2.2 W 3.1 0.0 0.2
23:18 13.9 13.8 99 1012.1 1.6 SW 2.2 0.0 0.2
23:19 13.9 13.8 99 1011.9 1.6 SW 2.2 0.0 0.2
23:20 13.9 13.8 99 1012.2 0.7 SW 2.2 0.0 0.2
23:21 13.9 13.8 99 1011.9 0.7 SW 2.2 0.0 0.2
23:22 13.9 13.8 99 1012.1 2.2 SW 2.2 0.0 0.2
23:23 13.9 13.8 99 1011.9 2.2 SW 2.2 0.0 0.2
23:24 13.9 13.8 99 1012.1 1.6 SW 2.2 0.0 0.2
23:25 13.9 13.8 99 1012.0 2.2 SW 2.2 0.0 0.2
23:26 13.9 13.8 99 1012.2 2.2 SW 2.2 0.0 0.2
23:27 14.0 13.9 99 1011.9 1.6 SW 2.2 0.0 0.2
23:28 14.0 13.9 99 1012.0 1.6 SW 2.2 0.0 0.2
23:29 14.0 13.9 99 1011.9 2.2 SW 2.2 0.0 0.2
23:30 14.0 14.0 100 1012.0 1.6 SW 2.2 0.0 0.2
23:31 14.0 14.0 100 1011.9 1.6 W 2.2 0.0 0.2
23:32 14.0 14.0 100 1011.9 1.6 W 2.2 0.0 0.2
23:33 14.0 14.0 100 1012.0 2.2 SW 2.2 0.0 0.2
23:34 14.0 14.0 100 1012.0 2.2 SW 2.2 0.0 0.2
23:35 14.0 14.0 100 1012.0 3.1 SW 3.1 0.0 0.2
23:36 14.1 14.1 100 1012.0 3.1 SW 3.1 0.8 0.3
23:37 14.1 14.1 100 1012.2 3.1 SW 3.1 0.8 0.3
23:38 14.1 14.1 100 1012.0 3.1 SW 3.1 0.8 0.3
23:39 14.1 14.1 100 1012.1 2.2 W 3.1 0.8 0.3
23:40 14.1 14.1 100 1012.1 1.6 SW 3.1 0.8 0.3
23:41 14.1 14.1 100 1012.0 2.2 SW 3.1 0.0 0.3
23:42 14.1 14.1 100 1012.1 3.1 SW 3.1 0.0 0.3
23:43 14.1 14.1 100 1012.1 4.5 SW 4.5 0.0 0.3
23:44 14.1 14.1 100 1012.3 3.1 SW 4.5 0.0 0.3
23:46 14.2 14.2 100 1012.0 3.1 W 4.5 0.0 0.3
23:47 14.2 14.2 100 1012.1 4.5 W 4.5 0.0 0.3
23:48 14.2 14.2 100 1012.2 3.8 SW 4.5 0.0 0.3
23:49 14.2 14.2 100 1012.2 3.1 SW 4.5 0.0 0.3
23:50 14.2 14.2 100 1012.1 3.1 SW 4.5 0.0 0.3
23:51 14.2 14.2 100 1012.1 3.1 SW 4.5 0.0 0.3
23:52 14.2 14.2 100 1012.0 3.1 W 4.5 0.0 0.3
23:53 14.2 14.2 100 1012.1 3.1 W 4.5 0.0 0.3
23:54 14.2 14.2 100 1012.0 3.1 SW 4.5 0.0 0.3
23:55 14.2 14.2 100 1012.0 3.1 SW 4.5 0.0 0.3
23:56 14.2 14.2 100 1012.2 3.1 W 4.5 0.0 0.3
23:57 14.2 14.2 100 1012.0 3.1 W 4.5 0.0 0.3
23:58 14.2 14.2 100 1012.2 2.2 SW 4.5 0.0 0.3

 

 

UK - WEATHER STATION TOPSITES - UK World Weather Websites

Copyright © Carnkie Weather 2009 - 2021.